GFSNGP_850_temp_102.txt.gz
Temp
11 11 11 11 11 11 11 11 11 13 13 14 14 14 13 8 6 5 4 4 3 0 1 5 7 8 9 9 9 9 10 9 9 10 9 9 9 9 9 9 9 8 8 8
10 11 11 10 11 11 11 12 12 13 13 13 7 6 5 4 4 3 2 0 3 -0 -1 1 4 6 8 9 9 9 9 8 9 9 9 9 9 9 9 9 8 8 8 8
9 10 10 10 11 11 11 12 12 10 11 9 3 1 -1 0 0 0 -0 0 0 0 -1 -0 2 3 5 8 8 8 8 8 8 8 8 9 9 9 8 8 8 8 8 8
8 9 8 9 11 11 11 11 9 9 6 4 2 -1 -1 -2 -2 -2 -2 -1 0 1 0 -0 0 3 4 6 6 7 7 7 8 8 8 9 9 8 8 8 8 8 8 8
8 9 9 9 8 9 9 9 6 5 6 6 3 3 -2 -2 -2 -3 -3 -3 -2 -1 -0 1 1 2 3 4 4 5 6 6 6 6 8 8 8 8 8 8 8 8 8 8
8 8 8 7 9 9 9 9 5 4 3 5 3 5 1 -3 -2 -2 -2 -2 -2 -0 0 1 1 1 2 4 5 5 6 6 5 5 7 6 6 7 7 7 7 7 7 7
7 7 8 6 8 8 9 5 2 1 0 -0 -1 -2 -3 -3 -3 -2 -3 -3 -2 -1 -1 -1 -0 0 2 3 3 2 3 6 5 4 4 5 4 5 6 6 5 5 5 5
7 7 6 1 8 6 2 -1 -0 -1 -0 -1 -3 -3 -4 -4 -3 -2 -3 -4 -4 -3 -2 -1 -1 -1 -0 -1 -1 0 2 3 3 3 4 5 4 2 2 3 3 3 3 3
3 3 -0 -1 -2 -2 -2 -2 -2 -2 -2 -3 -3 -4 -5 -5 -5 -4 -3 -3 -4 -4 -3 -2 -2 -2 -1 -1 -1 -1 0 0 1 1 1 2 3 3 1 1 1 1 1 1
3 0 -1 -2 -3 -3 -4 -4 -4 -4 -4 -3 -4 -5 -6 -6 -7 -6 -6 -6 -5 -6 -6 -5 -3 -3 -3 -3 -2 -2 -1 -1 -1 0 1 0 1 -0 1 -1 -1 -1 -2 -2
2 0 -1 -2 -3 -4 -4 -4 -4 -5 -5 -5 -5 -6 -6 -7 -8 -8 -8 -8 -8 -7 -7 -8 -7 -6 -4 -3 -3 -3 -3 -2 -2 -2 -2 -2 -1 -1 -2 -2 -3 -3 -4 -4
1 -2 -1 -3 -4 -5 -5 -6 -6 -5 -5 -6 -6 -6 -7 -8 -9 -9 -9 -8 -9 -9 -9 -9 -8 -6 -5 -5 -5 -6 -5 -4 -4 -4 -6 -7 -5 -5 -4 -4 -5 -5 -5 -5
-2 -4 -4 -5 -5 -6 -6 -7 -6 -6 -7 -7 -8 -8 -8 -9 -10 -10 -10 -10 -9 -9 -10 -10 -9 -7 -6 -5 -5 -5 -6 -7 -7 -8 -8 -8 -9 -8 -7 -7 -6 -5 -6 -6
-4 -4 -4 -5 -5 -6 -6 -7 -7 -8 -8 -9 -9 -9 -10 -10 -11 -11 -11 -11 -11 -11 -9 -9 -8 -7 -7 -7 -7 -7 -7 -7 -7 -7 -7 -7 -7 -8 -9 -9 -8 -8 -7 -7
-5 -5 -6 -7 -7 -7 -7 -7 -7 -8 -9 -10 -10 -10 -11 -11 -12 -12 -12 -12 -12 -11 -10 -9 -8 -8 -8 -8 -8 -7 -8 -8 -8 -8 -8 -9 -9 -9 -10 -10 -10 -10 -10 -9
-6 -6 -7 -8 -7 -8 -8 -8 -8 -9 -10 -11 -11 -12 -12 -12 -13 -13 -11 -10 -10 -10 -10 -9 -9 -9 -9 -9 -9 -9 -8 -8 -9 -9 -9 -9 -9 -9 -9 -9 -9 -9 -9 -9
-5 -5 -6 -7 -8 -9 -10 -10 -11 -11 -12 -12 -13 -13 -13 -13 -12 -11 -11 -11 -11 -11 -11 -11 -11 -10 -10 -10 -10 -10 -10 -9 -9 -9 -9 -9 -9 -10 -10 -10 -10 -9 -10 -10
-7 -8 -8 -8 -9 -10 -11 -12 -12 -13 -13 -12 -12 -12 -12 -12 -12 -12 -12 -12 -12 -12 -11 -11 -11 -11 -11 -10 -10 -10 -10 -10 -10 -10 -10 -10 -10 -10 -10 -10 -11 -11 -11 -11
-9 -9 -10 -11 -11 -11 -12 -13 -12 -12 -12 -12 -12 -12 -12 -12 -12 -13 -13 -13 -13 -13 -12 -12 -12 -11 -11 -11 -11 -11 -12 -12 -12 -11 -11 -11 -11 -11 -12 -12 -12 -12 -13 -13
-11 -11 -12 -12 -12 -13 -13 -12 -12 -12 -12 -12 -12 -12 -12 -13 -13 -13 -13 -13 -13 -13 -13 -13 -13 -13 -13 -13 -13 -13 -13 -13 -13 -12 -13 -14 -14 -13 -13 -13 -14 -14 -14 -14
-12 -11 -11 -11 -11 -12 -12 -12 -12 -12 -12 -13 -13 -13 -14 -14 -14 -14 -16 -16 -14 -14 -14 -14 -14 -13 -14 -14 -15 -15 -15 -15 -15 -16 -16 -16 -16 -16 -16 -16 -16 -16 -16 -16
-11 -11 -11 -12 -12 -12 -12 -12 -13 -13 -13 -14 -14 -14 -15 -16 -16 -16 -16 -16 -18 -15 -17 -17 -15 -15 -15 -15 -15 -15 -16 -16 -17 -17 -18 -18 -18 -18 -18 -17 -17 -17 -17 -17
-11 -11 -11 -11 -12 -12 -12 -13 -13 -13 -14 -14 -14 -15 -15 -17 -18 -17 -17 -18 -19 -17 -19 -16 -15 -15 -16 -16 -16 -16 -16 -16 -16 -16 -16 -17 -18 -19 -19 -18 -18 -17 -17 -17
-10 -11 -11 -12 -12 -13 -13 -13 -14 -14 -14 -15 -15 -15 -16 -17 -18 -19 -19 -19 -18 -18 -18 -17 -17 -17 -17 -17 -17 -17 -17 -17 -17 -17 -17 -17 -17 -17 -18 -18 -18 -18 -18 -18
-11 -11 -11 -12 -12 -14 -13 -14 -14 -15 -15 -16 -16 -17 -17 -19 -19 -19 -19 -20 -19 -20 -20 -18 -18 -18 -18 -18 -18 -18 -18 -18 -18 -18 -18 -18 -18 -18 -18 -18 -18 -18 -18 -19
-12 -13 -13 -13 -14 -14 -15 -15 -15 -15 -16 -17 -17 -18 -19 -19 -19 -20 -20 -19 -20 -19 -21 -21 -19 -19 -20 -19 -19 -18 -19 -19 -19 -19 -19 -19 -19 -19 -19 -19 -19 -19 -19 -19
-13 -13 -14 -14 -14 -15 -15 -15 -15 -15 -16 -17 -17 -18 -19 -19 -20 -20 -20 -20 -20 -20 -20 -20 -20 -20 -19 -19 -20 -20 -19 -20 -19 -19 -19 -19 -19 -19 -19 -19 -20 -20 -20 -20

GFSNGP_850_temp_105.txt.gz
Temp
12 13 14 13 13 13 12 13 12 14 14 12 10 7 4 3 3 2 2 1 1 1 2 -0 1 4 9 9 9 9 9 10 10 10 10 10 10 9 9 9 9 9 8 9
11 13 13 12 13 13 13 13 14 15 11 11 7 4 1 -0 -0 -0 -0 -1 -1 -1 3 -0 -1 1 4 8 9 9 9 9 9 9 9 9 9 9 9 9 9 8 9 8
9 12 12 11 12 13 13 11 11 9 8 10 6 1 -1 -1 -2 -2 -2 -2 -1 -1 -0 0 -1 -0 1 4 6 8 8 9 9 9 9 8 8 9 9 8 8 8 8 8
10 10 10 11 13 13 12 9 8 7 5 3 0 -2 -2 -3 -3 -3 -3 -3 -2 -1 -0 1 1 -0 1 2 3 5 6 6 7 8 8 8 8 8 8 8 8 9 8 8
10 11 11 10 11 10 11 6 8 7 4 4 1 2 -1 -3 -3 -4 -3 -3 -2 -2 -1 -0 2 1 1 1 2 2 3 1 2 5 6 7 7 7 7 8 8 8 8 8
11 10 8 7 10 10 11 6 5 5 4 3 3 5 1 -3 -4 -3 -3 -2 -2 -1 -0 1 1 1 2 2 0 3 2 1 0 2 4 4 5 5 6 7 6 6 7 7
9 10 8 2 5 7 8 3 1 2 2 1 0 -2 -3 -4 -4 -4 -3 -4 -3 -2 -1 -1 -0 0 2 1 1 0 0 0 -0 1 2 3 2 4 4 3 4 4 3 3
9 9 7 -0 7 5 1 -1 -1 -1 0 -0 -2 -3 -4 -5 -5 -5 -4 -3 -4 -4 -3 -2 -2 -1 -1 -0 -1 0 0 1 2 2 3 3 3 3 1 1 2 2 2 2
3 2 -1 -1 -1 -2 -1 -1 -1 -1 -1 -1 -2 -3 -4 -5 -5 -5 -5 -4 -4 -4 -4 -5 -4 -3 -2 -3 -3 -1 -0 -1 -1 2 2 2 2 2 2 1 1 1 1 1
3 1 0 -0 -1 -2 -2 -2 -3 -3 -2 -2 -2 -2 -3 -4 -4 -5 -5 -5 -5 -4 -5 -6 -7 -7 -6 -6 -5 -4 -4 -3 -2 -1 -0 -0 -0 -1 0 -1 -2 -3 -3 -2
1 1 0 -1 -2 -3 -3 -3 -2 -2 -3 -2 -2 -3 -3 -4 -5 -5 -6 -6 -6 -6 -6 -6 -7 -8 -7 -7 -6 -6 -6 -5 -5 -5 -4 -3 -3 -3 -3 -3 -3 -4 -4 -4
2 -1 -0 -2 -3 -3 -4 -4 -3 -3 -2 -3 -4 -4 -4 -5 -6 -6 -7 -7 -7 -7 -7 -8 -8 -9 -8 -7 -7 -7 -7 -7 -7 -7 -7 -8 -7 -6 -5 -5 -5 -5 -5 -4
-1 -3 -3 -4 -4 -4 -4 -5 -4 -4 -4 -4 -5 -5 -6 -7 -8 -8 -8 -8 -8 -9 -9 -9 -10 -8 -8 -8 -8 -6 -7 -8 -8 -8 -8 -8 -8 -9 -8 -7 -6 -5 -5 -5
-3 -3 -3 -3 -3 -4 -5 -4 -5 -5 -6 -6 -6 -7 -7 -8 -9 -9 -9 -10 -10 -10 -11 -11 -11 -8 -8 -9 -8 -9 -8 -7 -8 -8 -9 -9 -9 -9 -9 -10 -8 -8 -7 -7
-3 -4 -5 -5 -5 -5 -4 -4 -5 -5 -7 -7 -8 -8 -8 -9 -10 -11 -11 -11 -11 -11 -12 -12 -11 -9 -9 -10 -10 -9 -9 -10 -9 -9 -8 -9 -9 -9 -10 -10 -10 -11 -11 -9
-4 -5 -5 -5 -5 -5 -5 -5 -6 -7 -8 -9 -9 -10 -10 -10 -11 -12 -13 -13 -11 -12 -11 -10 -10 -9 -9 -9 -11 -11 -10 -10 -11 -10 -10 -11 -11 -11 -11 -11 -12 -11 -10 -11
-2 -3 -4 -5 -6 -7 -7 -8 -9 -9 -10 -11 -12 -12 -11 -11 -12 -13 -13 -13 -12 -11 -11 -10 -10 -10 -10 -10 -11 -11 -11 -11 -11 -11 -11 -11 -12 -12 -12 -12 -13 -13 -11 -11
-4 -5 -5 -5 -6 -7 -9 -9 -10 -11 -12 -13 -11 -11 -11 -11 -12 -11 -11 -12 -13 -14 -12 -11 -11 -11 -11 -11 -11 -12 -12 -12 -12 -12 -12 -12 -13 -13 -13 -13 -13 -14 -15 -14
-6 -7 -8 -8 -8 -9 -10 -11 -12 -12 -11 -11 -11 -11 -12 -12 -12 -12 -12 -12 -13 -15 -12 -12 -12 -13 -12 -12 -12 -13 -13 -13 -13 -13 -13 -13 -13 -14 -14 -14 -15 -15 -15 -16
-8 -9 -9 -10 -10 -11 -12 -12 -11 -11 -11 -11 -11 -12 -12 -12 -13 -13 -14 -14 -13 -13 -13 -13 -13 -16 -15 -15 -14 -14 -14 -14 -14 -15 -14 -14 -14 -15 -15 -15 -16 -16 -16 -17
-10 -11 -11 -10 -10 -10 -11 -11 -11 -12 -12 -12 -13 -13 -13 -13 -13 -13 -14 -13 -16 -15 -16 -17 -15 -13 -15 -14 -15 -15 -15 -15 -15 -15 -15 -15 -15 -16 -16 -16 -17 -17 -17 -18
-11 -10 -10 -10 -11 -11 -12 -12 -12 -12 -13 -13 -13 -13 -14 -15 -15 -15 -15 -15 -16 -16 -17 -18 -15 -14 -15 -16 -17 -17 -17 -17 -16 -16 -16 -16 -16 -17 -17 -18 -18 -18 -19 -19
-10 -11 -11 -11 -12 -12 -12 -12 -13 -13 -13 -13 -14 -14 -16 -16 -16 -15 -15 -17 -18 -17 -18 -18 -16 -16 -16 -18 -18 -18 -18 -18 -18 -18 -18 -18 -18 -18 -18 -19 -19 -19 -19 -20
-12 -13 -12 -12 -12 -14 -13 -14 -14 -14 -14 -15 -15 -15 -16 -15 -15 -16 -17 -18 -18 -18 -18 -18 -17 -17 -18 -19 -19 -19 -19 -19 -19 -19 -19 -19 -19 -19 -20 -20 -20 -20 -19 -20
-12 -11 -12 -12 -13 -12 -13 -14 -14 -14 -15 -15 -16 -16 -17 -17 -17 -17 -18 -18 -19 -19 -19 -19 -18 -18 -20 -20 -20 -20 -20 -20 -19 -20 -20 -20 -20 -20 -20 -21 -19 -21 -20 -20
-12 -11 -11 -13 -12 -12 -12 -13 -13 -12 -13 -14 -14 -16 -17 -17 -18 -18 -18 -19 -19 -19 -19 -20 -20 -20 -20 -20 -21 -21 -21 -20 -20 -21 -20 -21 -21 -21 -21 -21 -20 -21 -22 -22
-12 -12 -12 -12 -12 -13 -13 -13 -14 -13 -14 -14 -15 -16 -17 -17 -18 -18 -18 -18 -19 -19 -19 -19 -20 -20 -21 -20 -21 -21 -21 -21 -21 -21 -21 -21 -22 -22 -22 -21 -22 -21 -20 -19

GFSNGP_850_temp_111.txt.gz
Temp
6 8 6 6 6 6 8 10 7 6 5 3 2 1 0 -0 -1 -2 -2 -2 -2 -2 -1 0 -0 0 2 3 5 7 9 10 10 10 11 12 12 11 11 10 10 9 9 8
5 7 8 6 9 8 8 7 6 6 4 2 -0 -1 -1 -2 -2 -3 -3 -3 -2 -2 -1 -0 -0 -0 0 2 3 4 6 8 9 10 10 11 11 10 11 10 9 9 9 8
5 7 10 7 7 6 6 6 5 5 4 2 -0 -2 -3 -3 -3 -3 -3 -3 -3 -3 -2 -2 -1 -0 0 1 2 2 3 4 6 8 9 10 10 10 9 9 9 8 8 9
6 8 7 4 6 5 4 3 4 4 2 0 -2 -3 -4 -4 -4 -3 -3 -3 -3 -3 -2 -2 -1 -1 -0 1 1 2 1 2 3 4 5 6 8 9 9 9 8 8 8 8
6 6 6 6 4 3 5 2 2 2 2 -0 -1 -0 -3 -4 -4 -3 -3 -3 -3 -4 -3 -3 -2 -2 -1 -0 0 1 1 1 1 3 3 3 3 4 6 8 8 8 8 8
7 7 5 3 2 3 5 2 1 1 0 -1 0 0 -3 -4 -4 -4 -3 -3 -4 -4 -4 -3 -3 -3 -2 -1 -1 -0 0 -0 1 2 1 1 1 1 1 0 3 0 3 3
5 5 4 0 2 4 5 1 -0 -0 -1 -2 -2 -3 -4 -4 -4 -4 -4 -4 -5 -5 -5 -5 -4 -4 -4 -4 -3 -3 -1 -0 0 1 0 0 0 1 1 0 1 1 1 1
4 4 3 -0 2 2 0 -1 -1 -1 -1 -2 -3 -3 -4 -3 -4 -4 -4 -4 -5 -6 -6 -6 -5 -4 -5 -5 -5 -4 -3 -1 -1 0 0 -0 0 -0 0 -0 0 0 1 1
2 1 -1 -1 -1 -2 -2 -2 -2 -2 -1 -2 -2 -3 -3 -4 -4 -5 -5 -6 -6 -7 -7 -7 -7 -6 -5 -6 -6 -5 -3 -3 -2 -2 -2 -1 -1 -0 -0 -0 -0 -0 -0 1
1 -0 -1 -1 -2 -2 -2 -2 -1 -2 -1 -1 -2 -3 -4 -5 -5 -6 -7 -7 -7 -7 -8 -8 -8 -8 -7 -6 -6 -6 -6 -5 -4 -4 -3 -3 -2 -2 -2 -2 -2 -3 -2 -2
0 -0 -1 -2 -2 -3 -3 -2 -1 -2 -3 -3 -3 -4 -5 -6 -7 -7 -8 -8 -8 -9 -9 -9 -10 -9 -8 -7 -7 -6 -7 -7 -7 -6 -6 -5 -4 -5 -5 -5 -5 -4 -5 -5
-0 -1 -1 -3 -3 -3 -3 -3 -3 -3 -4 -4 -5 -6 -6 -7 -8 -9 -9 -9 -9 -9 -9 -9 -9 -9 -8 -9 -8 -8 -7 -7 -8 -8 -7 -7 -7 -6 -7 -7 -7 -7 -7 -6
-2 -1 -2 -3 -3 -3 -3 -3 -4 -5 -5 -6 -6 -7 -8 -8 -9 -9 -10 -10 -10 -10 -9 -8 -9 -9 -9 -9 -9 -9 -8 -8 -8 -8 -8 -8 -8 -8 -8 -8 -8 -7 -7 -8
-2 -2 -3 -3 -3 -3 -3 -3 -5 -6 -7 -7 -8 -8 -9 -9 -10 -10 -10 -11 -11 -10 -9 -9 -9 -9 -9 -9 -10 -10 -9 -9 -9 -9 -9 -9 -9 -9 -9 -9 -9 -9 -10 -9
-3 -2 -3 -3 -3 -3 -3 -4 -6 -7 -8 -9 -9 -10 -10 -10 -11 -11 -11 -11 -10 -10 -9 -9 -9 -9 -10 -10 -10 -10 -10 -10 -10 -10 -10 -10 -10 -10 -10 -10 -10 -10 -10 -10
-3 -4 -4 -4 -4 -5 -5 -6 -7 -9 -9 -9 -9 -10 -11 -11 -11 -11 -11 -11 -10 -11 -11 -10 -10 -10 -11 -11 -11 -11 -11 -11 -11 -11 -11 -11 -11 -11 -10 -10 -10 -11 -11 -11
-3 -3 -3 -4 -6 -7 -8 -8 -9 -9 -9 -9 -9 -10 -10 -10 -10 -11 -12 -12 -12 -12 -12 -11 -11 -11 -12 -12 -12 -11 -12 -12 -12 -12 -11 -12 -12 -12 -12 -12 -12 -12 -12 -12
-3 -3 -3 -5 -6 -8 -9 -9 -9 -9 -9 -10 -10 -10 -10 -10 -11 -12 -12 -13 -13 -13 -12 -12 -12 -12 -12 -12 -12 -13 -12 -12 -12 -13 -13 -13 -13 -13 -13 -13 -13 -13 -14 -14
-5 -5 -6 -7 -7 -8 -8 -9 -9 -9 -10 -10 -10 -10 -10 -11 -12 -12 -12 -13 -13 -13 -13 -12 -14 -13 -13 -13 -13 -14 -14 -14 -14 -13 -13 -13 -13 -14 -14 -14 -15 -15 -15 -15
-7 -7 -7 -8 -8 -8 -8 -9 -9 -9 -9 -10 -10 -10 -11 -12 -13 -13 -13 -14 -15 -15 -15 -14 -14 -14 -14 -14 -14 -15 -14 -14 -14 -14 -14 -15 -15 -15 -15 -15 -15 -16 -16 -17
-8 -8 -8 -8 -8 -8 -9 -9 -9 -10 -10 -10 -11 -11 -12 -13 -14 -14 -15 -15 -15 -16 -15 -15 -15 -15 -15 -15 -16 -16 -16 -15 -15 -15 -15 -15 -16 -16 -16 -16 -16 -17 -17 -18
-8 -8 -8 -8 -8 -9 -9 -10 -10 -10 -11 -12 -12 -13 -13 -14 -15 -15 -15 -16 -16 -16 -16 -16 -16 -16 -16 -16 -17 -17 -17 -17 -17 -17 -17 -16 -17 -17 -17 -17 -18 -18 -18 -18
-8 -8 -8 -8 -9 -9 -10 -11 -11 -11 -12 -12 -13 -13 -14 -14 -15 -16 -16 -16 -16 -17 -17 -17 -17 -18 -18 -17 -18 -18 -18 -18 -18 -18 -18 -18 -18 -18 -18 -18 -18 -19 -19 -19
-8 -8 -9 -9 -10 -10 -10 -11 -11 -12 -12 -12 -13 -14 -14 -14 -15 -15 -16 -17 -17 -17 -17 -18 -18 -18 -19 -19 -19 -19 -19 -19 -19 -19 -19 -19 -19 -20 -20 -20 -20 -20 -20 -20
-8 -9 -9 -10 -11 -11 -11 -12 -12 -12 -12 -13 -13 -14 -14 -15 -15 -16 -17 -17 -18 -18 -18 -18 -19 -19 -19 -19 -19 -19 -20 -20 -20 -20 -20 -20 -20 -20 -20 -20 -21 -21 -21 -21
-9 -10 -10 -10 -11 -11 -12 -12 -12 -13 -13 -13 -13 -14 -14 -15 -15 -16 -17 -17 -18 -18 -18 -18 -19 -19 -19 -19 -19 -20 -20 -20 -20 -21 -20 -20 -21 -21 -21 -21 -21 -21 -21 -21
-11 -11 -11 -11 -11 -11 -12 -12 -12 -12 -13 -13 -14 -15 -15 -16 -16 -16 -17 -17 -18 -18 -18 -18 -19 -19 -19 -20 -20 -20 -20 -20 -21 -21 -21 -21 -21 -22 -22 -22 -22 -22 -22 -22

GFSNGP_850_temp_114.txt.gz
Temp
6 6 6 5 7 6 7 6 6 4 3 1 0 -0 -1 -2 -2 -3 -3 -3 -3 -2 -1 -1 0 0 1 1 2 3 6 7 9 10 11 11 12 13 13 13 12 12 11 11
5 5 5 5 4 5 5 5 4 3 2 -0 -2 -2 -2 -2 -3 -3 -3 -4 -3 -3 -2 -2 -1 -0 0 0 1 2 3 4 5 7 9 10 11 10 11 11 11 11 10 10
5 5 6 5 4 3 3 3 4 4 2 -0 -1 -2 -3 -4 -3 -3 -3 -4 -4 -3 -3 -2 -2 -1 -0 0 1 1 2 2 3 4 5 9 9 10 9 9 9 9 9 9
5 6 5 3 2 4 2 2 2 2 0 -2 -3 -4 -4 -4 -4 -4 -4 -4 -4 -4 -3 -3 -2 -1 -1 -0 0 0 0 1 2 2 2 3 3 8 8 9 9 9 8 8
6 6 4 4 2 1 3 1 1 1 1 -1 -2 -1 -4 -5 -4 -4 -4 -4 -4 -5 -4 -3 -3 -3 -2 -1 -1 -1 -1 -0 0 1 1 1 2 3 2 3 5 6 8 8
5 5 4 1 1 2 3 1 0 -0 -1 -1 -0 -2 -3 -4 -4 -4 -4 -5 -5 -5 -4 -3 -3 -3 -3 -2 -2 -2 -2 -2 -1 -1 0 -0 0 0 1 2 1 1 1 4
5 4 3 -0 1 3 3 1 -1 -1 -2 -3 -3 -4 -4 -4 -5 -5 -5 -6 -5 -5 -5 -5 -5 -4 -4 -4 -5 -4 -3 -2 -1 -1 -1 -1 -0 1 1 1 0 1 1 1
3 3 2 -1 1 2 -1 -2 -2 -1 -2 -3 -3 -4 -4 -5 -5 -6 -6 -6 -6 -6 -6 -7 -6 -5 -5 -5 -6 -5 -4 -3 -2 -2 -2 -2 -1 -0 -0 -0 0 -0 1 0
1 0 -1 -2 -2 -2 -2 -2 -2 -2 -2 -3 -4 -4 -5 -6 -6 -7 -7 -7 -7 -7 -7 -7 -7 -6 -6 -6 -6 -6 -6 -5 -4 -4 -3 -3 -2 -2 -1 -1 -1 -0 -0 -0
-0 -0 -1 -2 -2 -2 -2 -2 -2 -2 -2 -3 -4 -5 -6 -6 -7 -7 -7 -8 -8 -7 -7 -7 -8 -8 -7 -6 -6 -6 -7 -7 -6 -4 -4 -4 -4 -4 -3 -3 -3 -3 -3 -3
-0 -1 -2 -2 -3 -3 -2 -3 -3 -3 -4 -4 -4 -6 -6 -8 -8 -8 -9 -9 -8 -8 -8 -8 -8 -8 -8 -7 -8 -7 -7 -7 -7 -7 -6 -5 -5 -5 -6 -7 -7 -6 -6 -6
-0 -1 -2 -3 -3 -3 -3 -4 -4 -4 -5 -6 -5 -6 -7 -8 -9 -9 -9 -9 -9 -9 -9 -9 -9 -8 -8 -8 -8 -8 -8 -8 -8 -8 -7 -7 -7 -7 -7 -8 -7 -8 -8 -7
-1 -1 -2 -3 -3 -3 -4 -4 -5 -5 -6 -6 -7 -7 -8 -8 -9 -10 -9 -9 -9 -9 -9 -9 -9 -9 -9 -9 -9 -9 -9 -9 -9 -9 -9 -8 -8 -8 -7 -9 -9 -9 -9 -8
-2 -2 -3 -3 -3 -3 -4 -5 -5 -6 -7 -8 -8 -9 -9 -9 -9 -9 -9 -10 -10 -10 -10 -10 -10 -10 -10 -10 -10 -10 -10 -10 -10 -10 -9 -9 -9 -9 -9 -9 -8 -8 -9 -9
-2 -2 -3 -3 -3 -4 -5 -5 -5 -7 -8 -8 -9 -9 -9 -9 -9 -10 -10 -10 -10 -10 -10 -10 -10 -10 -10 -11 -11 -10 -11 -10 -11 -10 -10 -10 -10 -10 -10 -10 -10 -10 -10 -10
-3 -3 -4 -4 -4 -5 -5 -6 -6 -8 -9 -9 -9 -9 -10 -10 -10 -10 -10 -10 -10 -10 -10 -10 -11 -11 -11 -11 -11 -11 -11 -11 -11 -11 -11 -11 -11 -11 -11 -11 -11 -11 -11 -11
-4 -5 -4 -5 -5 -6 -6 -7 -7 -8 -8 -9 -9 -10 -10 -10 -10 -10 -10 -11 -11 -11 -12 -11 -11 -12 -12 -12 -12 -12 -12 -12 -12 -12 -12 -12 -12 -12 -12 -12 -12 -12 -12 -12
-2 -3 -3 -4 -5 -6 -7 -7 -8 -8 -8 -8 -9 -10 -10 -10 -11 -12 -12 -13 -13 -12 -13 -13 -13 -12 -13 -13 -13 -13 -13 -13 -13 -13 -13 -13 -13 -13 -14 -14 -14 -14 -14 -14
-3 -3 -4 -5 -6 -6 -7 -7 -8 -8 -8 -9 -10 -10 -11 -11 -12 -12 -13 -14 -13 -13 -13 -13 -14 -14 -14 -13 -14 -14 -14 -14 -14 -14 -14 -14 -14 -14 -14 -15 -15 -15 -16 -16
-5 -5 -6 -6 -7 -7 -7 -8 -8 -9 -9 -10 -10 -11 -12 -12 -12 -13 -13 -14 -14 -14 -14 -15 -14 -14 -15 -15 -14 -14 -15 -15 -15 -15 -15 -15 -15 -15 -16 -16 -16 -16 -17 -17
-6 -6 -6 -6 -7 -7 -8 -8 -9 -9 -10 -10 -11 -12 -12 -12 -13 -13 -14 -15 -15 -15 -16 -16 -15 -15 -15 -15 -15 -15 -16 -16 -16 -16 -16 -16 -16 -16 -16 -17 -17 -17 -18 -18
-7 -7 -7 -7 -7 -8 -8 -9 -10 -10 -10 -11 -12 -12 -12 -13 -14 -14 -15 -16 -16 -16 -17 -16 -16 -16 -17 -17 -16 -17 -17 -17 -18 -17 -17 -17 -18 -18 -18 -18 -18 -18 -18 -19
-7 -7 -7 -8 -8 -8 -9 -10 -10 -11 -11 -12 -13 -13 -13 -14 -14 -15 -16 -16 -17 -17 -17 -18 -18 -18 -18 -18 -18 -18 -19 -19 -19 -19 -19 -19 -19 -19 -19 -19 -19 -19 -19 -19
-7 -7 -8 -8 -9 -9 -10 -10 -11 -11 -12 -12 -13 -13 -14 -14 -15 -15 -16 -16 -17 -17 -18 -18 -18 -18 -19 -19 -19 -19 -20 -20 -20 -20 -20 -20 -20 -20 -20 -20 -20 -20 -20 -21
-7 -8 -8 -9 -9 -10 -10 -11 -12 -12 -12 -12 -12 -13 -14 -14 -15 -16 -16 -17 -17 -18 -18 -18 -18 -19 -19 -19 -20 -19 -20 -20 -20 -20 -20 -20 -21 -21 -21 -21 -21 -21 -21 -21
-8 -8 -8 -9 -10 -11 -11 -11 -12 -12 -12 -13 -13 -13 -14 -15 -16 -16 -16 -17 -17 -18 -18 -18 -19 -19 -19 -19 -20 -20 -20 -20 -21 -21 -21 -21 -21 -21 -21 -22 -22 -22 -22 -22
-9 -9 -10 -11 -11 -11 -11 -11 -12 -12 -13 -13 -14 -15 -15 -16 -16 -16 -17 -17 -17 -18 -18 -18 -18 -19 -19 -19 -20 -20 -20 -21 -21 -21 -21 -21 -21 -22 -22 -22 -22 -22 -22 -22

GFSNGP_850_temp_117.txt.gz
Temp
4 4 5 5 8 6 6 5 4 3 1 -0 -1 -1 -2 -2 -2 -3 -3 -4 -3 -3 -2 -1 -0 0 0 1 1 2 3 4 5 6 8 9 11 11 11 11 13 13 13 13
4 5 4 3 3 4 3 3 2 2 0 -1 -2 -3 -3 -3 -3 -3 -4 -5 -5 -3 -3 -2 -2 -1 -1 -0 0 1 2 2 3 4 6 7 9 10 10 10 10 11 12 11
5 5 5 3 2 2 2 2 4 3 0 -2 -3 -3 -4 -4 -4 -4 -5 -6 -5 -4 -4 -3 -3 -3 -2 -1 -0 1 0 1 2 2 3 4 5 7 8 8 9 10 10 10
5 6 4 2 1 2 2 1 1 0 -1 -2 -3 -4 -4 -5 -5 -4 -6 -6 -5 -5 -4 -4 -3 -2 -2 -1 -1 -0 0 0 -0 0 1 1 3 3 4 4 3 7 9 9
5 4 3 2 1 1 2 1 0 0 -1 -3 -3 -2 -4 -5 -5 -5 -5 -6 -6 -5 -5 -4 -4 -4 -3 -2 -1 -1 -1 -1 -1 -0 -1 -0 0 1 1 2 3 2 2 7
5 5 4 1 -0 -0 2 1 -1 -1 -2 -2 -2 -2 -4 -6 -5 -6 -7 -7 -6 -6 -5 -5 -5 -4 -3 -4 -4 -3 -3 -2 -1 -1 -1 -1 -1 -1 -0 0 1 2 2 3
4 3 2 -1 -1 0 3 0 -1 -2 -3 -4 -4 -5 -5 -5 -6 -6 -7 -7 -7 -7 -7 -6 -6 -5 -5 -5 -6 -6 -4 -3 -1 -1 -1 -1 -1 -1 -1 -0 -0 -0 1 2
3 2 2 -2 0 1 -1 -2 -2 -2 -3 -4 -5 -5 -6 -6 -6 -7 -7 -7 -7 -7 -7 -7 -6 -6 -5 -6 -6 -6 -5 -3 -3 -3 -2 -2 -1 -1 -1 -1 -1 -1 -1 -0
1 -0 -2 -2 -2 -2 -2 -2 -2 -2 -3 -4 -5 -6 -6 -7 -8 -8 -8 -8 -8 -8 -7 -7 -7 -7 -6 -7 -6 -6 -5 -5 -5 -4 -3 -3 -2 -1 -1 -2 -2 -2 -2 -3
-0 -1 -2 -3 -3 -2 -2 -3 -3 -3 -4 -4 -6 -7 -7 -8 -8 -9 -9 -8 -8 -8 -8 -8 -8 -7 -8 -7 -7 -7 -7 -6 -7 -6 -5 -5 -4 -4 -4 -4 -4 -4 -4 -5
-1 -2 -2 -3 -3 -3 -3 -3 -3 -4 -4 -5 -5 -7 -7 -8 -8 -8 -8 -8 -8 -8 -9 -9 -8 -8 -8 -7 -7 -7 -7 -8 -7 -7 -7 -7 -7 -6 -7 -8 -8 -7 -7 -6
-1 -1 -2 -3 -3 -3 -3 -4 -4 -4 -5 -6 -6 -7 -8 -8 -9 -9 -8 -8 -8 -8 -8 -8 -8 -8 -8 -8 -8 -8 -8 -8 -8 -8 -8 -8 -8 -8 -8 -9 -8 -8 -8 -8
-1 -1 -2 -3 -3 -3 -4 -4 -5 -5 -6 -7 -8 -8 -8 -8 -8 -9 -8 -8 -9 -9 -9 -9 -9 -9 -8 -8 -9 -9 -9 -9 -9 -9 -9 -9 -9 -9 -9 -9 -9 -8 -9 -8
-1 -2 -3 -3 -4 -4 -4 -5 -6 -6 -7 -8 -8 -8 -8 -8 -9 -9 -9 -9 -10 -10 -9 -10 -10 -10 -10 -10 -10 -10 -10 -10 -10 -10 -10 -10 -10 -10 -10 -10 -10 -9 -9 -10
-2 -2 -2 -3 -4 -5 -5 -6 -6 -7 -8 -8 -8 -8 -8 -8 -9 -9 -10 -10 -10 -10 -10 -10 -10 -10 -10 -11 -11 -11 -10 -11 -11 -11 -11 -11 -11 -11 -10 -11 -11 -11 -11 -11
-3 -3 -3 -3 -5 -6 -6 -6 -6 -7 -8 -8 -8 -8 -9 -9 -9 -9 -10 -10 -10 -10 -10 -11 -11 -11 -11 -11 -11 -11 -11 -12 -12 -12 -12 -12 -12 -12 -11 -12 -12 -12 -12 -12
-3 -5 -4 -4 -5 -5 -6 -6 -6 -7 -8 -8 -8 -9 -9 -9 -10 -10 -10 -10 -11 -12 -12 -12 -11 -11 -12 -12 -13 -13 -13 -13 -13 -13 -13 -13 -13 -13 -13 -13 -13 -13 -13 -13
-2 -2 -3 -3 -4 -5 -7 -7 -7 -7 -8 -8 -9 -9 -9 -10 -10 -10 -11 -12 -13 -13 -13 -12 -12 -12 -13 -13 -13 -14 -14 -14 -14 -14 -14 -14 -14 -14 -15 -15 -15 -15 -15 -15
-3 -3 -4 -4 -5 -6 -6 -7 -7 -8 -8 -8 -9 -9 -10 -10 -11 -11 -12 -13 -13 -13 -13 -13 -13 -13 -14 -14 -14 -14 -14 -15 -15 -15 -15 -15 -15 -15 -15 -16 -16 -16 -16 -16
-3 -4 -4 -5 -6 -6 -6 -7 -7 -8 -8 -9 -9 -10 -10 -11 -12 -12 -13 -13 -14 -14 -14 -14 -15 -15 -15 -15 -15 -15 -15 -15 -16 -16 -16 -16 -16 -16 -16 -16 -17 -17 -17 -18
-4 -5 -5 -5 -6 -6 -7 -7 -8 -8 -9 -10 -10 -10 -11 -12 -13 -13 -14 -14 -15 -15 -15 -16 -16 -16 -16 -16 -16 -16 -16 -17 -17 -17 -17 -17 -17 -17 -17 -17 -18 -18 -18 -18
-5 -5 -6 -6 -6 -6 -7 -8 -8 -9 -10 -10 -11 -11 -12 -12 -13 -14 -14 -15 -15 -16 -16 -16 -17 -17 -17 -18 -17 -17 -17 -18 -18 -18 -19 -19 -19 -19 -19 -19 -19 -19 -19 -19
-6 -6 -6 -6 -7 -7 -8 -8 -9 -10 -11 -11 -12 -12 -12 -13 -13 -14 -14 -15 -16 -17 -17 -17 -18 -18 -18 -18 -18 -18 -18 -19 -19 -19 -19 -20 -20 -20 -20 -20 -20 -20 -20 -20
-6 -7 -7 -7 -8 -8 -9 -9 -10 -11 -11 -12 -12 -13 -13 -13 -14 -15 -15 -16 -16 -17 -17 -18 -18 -18 -18 -19 -19 -19 -19 -20 -20 -20 -20 -20 -20 -20 -21 -21 -21 -21 -21 -21
-6 -7 -7 -7 -8 -9 -10 -10 -11 -11 -11 -12 -12 -13 -13 -14 -14 -15 -16 -16 -16 -17 -18 -18 -18 -19 -19 -19 -19 -20 -20 -20 -20 -20 -21 -21 -21 -21 -21 -21 -21 -22 -22 -22
-7 -7 -7 -8 -9 -10 -11 -11 -11 -12 -12 -12 -13 -13 -13 -14 -14 -15 -16 -16 -17 -17 -18 -18 -18 -19 -19 -19 -19 -20 -20 -20 -20 -21 -21 -21 -21 -22 -22 -22 -22 -22 -22 -22
-8 -8 -9 -9 -9 -10 -11 -11 -12 -12 -12 -13 -13 -14 -14 -14 -15 -16 -16 -17 -17 -17 -18 -18 -18 -19 -19 -19 -19 -20 -20 -20 -21 -21 -21 -21 -21 -21 -22 -22 -22 -22 -22 -22

GFSNGP_850_temp_120.txt.gz
Temp
3 3 3 3 4 6 5 4 3 1 0 -1 -2 -2 -3 -3 -4 -4 -5 -5 -5 -5 -4 -3 -2 -2 -1 -0 1 1 1 2 2 3 5 6 7 9 9 10 10 11 11 11
4 4 3 2 2 3 3 2 1 0 -1 -2 -3 -3 -4 -4 -4 -5 -6 -7 -6 -5 -4 -3 -3 -3 -1 -1 -0 0 1 0 1 1 2 4 5 6 7 8 9 10 10 10
4 4 6 3 1 1 2 1 2 2 -1 -2 -3 -4 -4 -5 -4 -6 -7 -7 -6 -6 -5 -4 -4 -4 -4 -2 -1 -0 -0 -0 0 0 0 1 2 4 5 5 6 7 9 9
5 4 4 1 1 1 1 0 0 -1 -2 -3 -4 -5 -5 -5 -6 -7 -7 -7 -7 -6 -6 -5 -5 -4 -4 -3 -2 -1 -0 -1 -0 -0 -0 0 1 1 2 2 3 4 5 3
4 4 3 2 1 1 2 0 -1 -0 -2 -3 -3 -3 -6 -6 -7 -8 -8 -8 -7 -7 -6 -6 -5 -5 -4 -3 -3 -2 -2 -2 -1 -0 -0 -0 0 0 -0 1 1 2 2 3
4 5 3 0 0 0 1 1 -1 -2 -3 -3 -2 -3 -6 -7 -7 -7 -7 -8 -7 -7 -6 -6 -6 -5 -4 -6 -6 -5 -4 -4 -3 -2 -1 -1 -1 -1 -1 -1 -1 0 0 1
4 3 2 -1 -1 0 2 -0 -2 -3 -4 -4 -5 -6 -7 -7 -7 -7 -7 -7 -7 -7 -7 -7 -6 -6 -5 -6 -6 -6 -6 -5 -4 -3 -3 -3 -2 -1 -1 -1 -0 -1 -1 -1
2 3 2 -2 0 1 -1 -2 -3 -3 -4 -6 -6 -6 -7 -7 -8 -8 -8 -7 -8 -7 -7 -7 -6 -6 -6 -6 -7 -6 -6 -5 -5 -5 -4 -3 -3 -2 -3 -2 -1 -2 -2 -2
0 -1 -2 -3 -3 -3 -2 -2 -3 -4 -4 -5 -6 -7 -8 -8 -8 -8 -8 -8 -8 -7 -7 -7 -7 -7 -7 -7 -7 -7 -6 -6 -5 -5 -5 -5 -4 -4 -3 -3 -4 -4 -4 -4
-0 -2 -2 -3 -3 -3 -2 -2 -3 -3 -4 -4 -5 -7 -7 -8 -8 -8 -8 -8 -8 -7 -7 -8 -8 -8 -8 -7 -7 -7 -7 -7 -7 -6 -6 -6 -6 -6 -6 -6 -6 -6 -6 -6
-1 -2 -3 -3 -3 -3 -3 -3 -4 -4 -5 -5 -6 -7 -8 -8 -8 -9 -8 -8 -8 -8 -9 -9 -9 -8 -8 -8 -8 -8 -8 -8 -8 -8 -8 -8 -8 -8 -8 -9 -9 -8 -9 -8
-4 -1 -2 -3 -3 -3 -4 -4 -5 -5 -6 -7 -7 -8 -8 -9 -9 -9 -9 -9 -9 -9 -9 -9 -9 -9 -9 -9 -9 -9 -9 -9 -9 -9 -9 -9 -9 -9 -9 -9 -9 -9 -9 -9
-1 -1 -1 -3 -3 -4 -4 -5 -5 -6 -7 -7 -8 -8 -9 -9 -9 -10 -9 -9 -9 -10 -10 -9 -9 -9 -9 -9 -10 -10 -10 -10 -9 -9 -9 -10 -10 -10 -9 -10 -10 -10 -10 -10
-1 -2 -4 -4 -4 -4 -4 -5 -6 -6 -7 -8 -8 -9 -9 -9 -9 -9 -9 -10 -10 -10 -9 -10 -10 -10 -10 -10 -10 -10 -10 -10 -10 -11 -11 -11 -10 -11 -11 -11 -11 -11 -11 -11
-2 -1 -2 -3 -4 -5 -5 -5 -6 -7 -7 -8 -8 -8 -8 -9 -9 -9 -10 -10 -10 -10 -10 -10 -10 -10 -11 -11 -11 -11 -11 -11 -11 -11 -12 -12 -12 -12 -12 -12 -12 -12 -12 -11
-2 -2 -3 -3 -4 -5 -5 -6 -6 -7 -7 -8 -8 -8 -8 -9 -9 -10 -10 -10 -10 -10 -10 -11 -11 -11 -11 -11 -12 -12 -12 -12 -12 -12 -12 -12 -13 -13 -13 -13 -14 -13 -13 -13
-2 -4 -4 -4 -5 -5 -6 -6 -7 -7 -8 -8 -8 -8 -9 -9 -10 -10 -11 -11 -11 -12 -12 -12 -12 -11 -12 -12 -13 -13 -13 -13 -13 -13 -13 -13 -14 -14 -15 -15 -15 -15 -15 -15
-2 -2 -3 -3 -4 -5 -6 -6 -7 -7 -7 -8 -8 -9 -9 -9 -10 -11 -11 -12 -13 -13 -13 -12 -12 -12 -12 -13 -14 -14 -14 -14 -14 -15 -15 -15 -15 -15 -15 -16 -16 -16 -16 -17
-3 -2 -3 -4 -4 -5 -6 -6 -7 -7 -7 -8 -9 -9 -10 -10 -11 -11 -11 -12 -12 -13 -13 -12 -12 -13 -13 -14 -14 -14 -14 -15 -15 -16 -16 -16 -16 -16 -16 -16 -17 -17 -17 -18
-3 -3 -4 -4 -5 -5 -6 -6 -7 -7 -8 -8 -9 -10 -10 -11 -11 -12 -12 -13 -13 -13 -14 -13 -13 -14 -14 -15 -15 -15 -15 -16 -17 -17 -17 -17 -17 -17 -17 -17 -18 -18 -18 -18
-3 -4 -4 -4 -5 -6 -7 -7 -8 -8 -8 -9 -10 -10 -10 -11 -12 -12 -12 -13 -13 -14 -15 -15 -15 -15 -16 -16 -16 -16 -17 -17 -17 -18 -18 -18 -19 -19 -19 -19 -19 -19 -19 -19
-4 -4 -5 -5 -6 -6 -7 -8 -8 -9 -9 -10 -10 -10 -11 -12 -12 -13 -13 -14 -14 -15 -16 -16 -17 -17 -17 -18 -18 -18 -18 -18 -19 -19 -19 -19 -20 -20 -20 -20 -20 -20 -20 -20
-5 -5 -6 -6 -6 -7 -8 -8 -9 -9 -10 -10 -11 -11 -12 -12 -13 -13 -14 -14 -15 -15 -16 -17 -17 -18 -18 -18 -18 -19 -19 -19 -20 -20 -20 -20 -20 -20 -20 -21 -21 -21 -21 -21
-6 -6 -7 -7 -7 -7 -8 -8 -9 -9 -10 -11 -11 -12 -12 -13 -13 -14 -14 -15 -15 -16 -17 -17 -18 -18 -18 -19 -19 -19 -20 -20 -20 -21 -21 -21 -21 -21 -21 -21 -22 -22 -22 -22
-6 -6 -7 -7 -7 -8 -8 -8 -9 -10 -11 -11 -12 -12 -13 -13 -13 -14 -15 -15 -16 -16 -17 -17 -18 -18 -18 -19 -19 -19 -20 -20 -20 -21 -21 -21 -21 -21 -22 -22 -22 -22 -22 -22
-6 -6 -7 -7 -8 -9 -9 -9 -9 -10 -11 -12 -12 -13 -13 -13 -13 -14 -15 -16 -16 -17 -17 -17 -18 -18 -18 -19 -19 -19 -20 -20 -20 -21 -21 -21 -21 -21 -22 -22 -22 -22 -22 -23
-7 -7 -8 -8 -9 -9 -10 -10 -10 -11 -12 -12 -12 -13 -13 -14 -14 -14 -15 -16 -16 -17 -17 -17 -18 -18 -19 -19 -19 -20 -20 -20 -20 -21 -21 -21 -21 -22 -22 -22 -22 -22 -23 -23

GFSNGP_850_temp_123.txt.gz
Temp
4 3 2 2 3 4 4 3 4 1 -0 -2 -2 -2 -3 -4 -5 -5 -6 -6 -7 -5 -5 -5 -5 -5 -2 -1 0 0 1 1 1 2 2 3 4 6 6 7 8 9 9 10
4 4 3 2 1 2 3 2 1 0 -1 -2 -3 -4 -4 -5 -6 -6 -7 -7 -7 -6 -6 -6 -6 -6 -3 -2 -1 -1 -0 -0 0 1 1 2 2 3 4 5 6 7 7 8
5 4 4 3 1 1 2 1 2 1 -1 -3 -3 -4 -5 -6 -7 -7 -7 -8 -8 -7 -7 -7 -6 -7 -6 -4 -2 -1 -0 -0 -0 0 0 0 1 1 2 2 3 4 4 5
6 5 4 2 1 1 0 0 0 -1 -2 -3 -5 -6 -7 -8 -8 -8 -8 -9 -8 -7 -6 -6 -5 -5 -5 -3 -3 -2 -2 -1 -0 -0 0 -0 -0 -0 0 1 1 1 2 2
5 5 3 2 1 1 2 0 -1 -0 -2 -3 -5 -4 -7 -8 -9 -9 -9 -8 -8 -8 -7 -6 -5 -5 -4 -4 -4 -4 -3 -3 -2 -1 -0 -0 -0 -1 -1 -1 -1 -0 0 1
5 5 5 1 0 0 1 1 -1 -2 -2 -2 -2 -1 -5 -9 -8 -8 -8 -8 -7 -7 -6 -6 -6 -6 -5 -5 -5 -5 -5 -4 -3 -2 -2 -2 -2 -2 -2 -1 -1 -1 -1 -1
4 4 2 -0 -1 0 3 1 -2 -3 -4 -3 -4 -6 -8 -8 -8 -8 -8 -8 -7 -7 -7 -7 -6 -5 -5 -5 -6 -6 -5 -4 -3 -3 -3 -3 -3 -2 -2 -2 -2 -2 -2 -3
3 3 3 -2 -0 2 -1 -2 -3 -4 -5 -6 -7 -8 -7 -8 -8 -8 -7 -7 -8 -7 -7 -7 -7 -6 -6 -7 -8 -7 -6 -5 -5 -5 -5 -4 -4 -4 -3 -3 -3 -3 -3 -3
1 1 -2 -3 -3 -2 -2 -3 -4 -4 -5 -6 -7 -8 -9 -9 -8 -8 -8 -8 -8 -8 -8 -7 -7 -7 -6 -7 -7 -7 -6 -6 -7 -6 -6 -6 -5 -5 -5 -5 -6 -5 -5 -5
0 -1 -2 -3 -3 -3 -3 -4 -4 -4 -5 -6 -7 -8 -8 -8 -8 -8 -8 -8 -8 -8 -8 -8 -8 -8 -8 -8 -8 -8 -8 -7 -7 -7 -7 -7 -7 -7 -7 -7 -8 -8 -8 -7
-1 -2 -3 -4 -3 -3 -4 -4 -4 -5 -6 -7 -7 -8 -8 -9 -9 -9 -9 -9 -8 -8 -9 -9 -9 -9 -8 -8 -8 -9 -9 -9 -8 -9 -8 -9 -9 -8 -9 -9 -9 -9 -9 -9
0 -1 -1 -3 -3 -3 -4 -4 -5 -5 -6 -7 -7 -8 -8 -9 -9 -9 -9 -9 -9 -9 -9 -9 -9 -9 -9 -9 -9 -10 -10 -10 -10 -10 -10 -9 -9 -10 -10 -9 -9 -9 -9 -9
-1 -1 -2 -3 -3 -4 -3 -4 -5 -5 -6 -6 -7 -7 -7 -8 -8 -9 -9 -9 -9 -9 -9 -9 -9 -9 -9 -10 -10 -10 -10 -10 -10 -10 -11 -11 -10 -10 -10 -10 -10 -9 -9 -9
-1 -1 -4 -4 -4 -4 -4 -5 -5 -6 -6 -7 -7 -7 -8 -8 -9 -9 -9 -9 -10 -10 -10 -10 -10 -10 -10 -10 -10 -10 -11 -11 -11 -11 -12 -12 -12 -12 -12 -11 -11 -11 -11 -11
-2 -2 -1 -3 -4 -4 -5 -5 -5 -6 -7 -7 -7 -8 -8 -8 -9 -9 -10 -10 -10 -10 -10 -10 -10 -10 -10 -11 -11 -11 -11 -11 -12 -12 -13 -13 -13 -13 -13 -13 -13 -13 -12 -12
-2 -2 -3 -3 -4 -5 -5 -6 -6 -7 -7 -7 -8 -8 -9 -9 -9 -10 -11 -10 -10 -10 -10 -11 -11 -11 -12 -12 -12 -12 -12 -12 -12 -13 -13 -13 -14 -14 -14 -15 -14 -14 -14 -14
-2 -4 -4 -4 -4 -5 -5 -5 -6 -6 -7 -8 -8 -8 -9 -9 -10 -11 -10 -11 -11 -11 -12 -12 -12 -12 -12 -12 -12 -12 -12 -12 -13 -13 -14 -14 -15 -15 -16 -16 -16 -16 -16 -16
-1 -2 -2 -2 -3 -4 -5 -6 -6 -6 -7 -7 -8 -8 -9 -10 -11 -11 -11 -12 -12 -13 -12 -12 -12 -12 -13 -13 -13 -13 -13 -14 -14 -14 -15 -15 -16 -16 -16 -17 -17 -17 -17 -17
-2 -2 -3 -3 -4 -4 -5 -5 -6 -7 -7 -7 -8 -9 -10 -11 -11 -11 -12 -12 -13 -13 -13 -13 -13 -13 -13 -14 -13 -14 -14 -14 -15 -15 -16 -16 -16 -17 -17 -17 -18 -18 -18 -18
-3 -3 -3 -3 -4 -5 -5 -6 -6 -6 -7 -8 -9 -10 -11 -11 -11 -11 -12 -12 -13 -13 -13 -14 -14 -14 -14 -15 -15 -15 -15 -15 -16 -16 -17 -17 -17 -18 -18 -18 -19 -19 -19 -19
-3 -3 -3 -4 -4 -5 -6 -6 -6 -7 -8 -9 -10 -10 -10 -11 -11 -12 -12 -13 -13 -13 -14 -15 -15 -15 -15 -16 -16 -16 -17 -17 -17 -18 -18 -18 -19 -19 -19 -19 -19 -19 -20 -20
-3 -3 -4 -4 -5 -5 -6 -6 -7 -8 -9 -9 -10 -10 -11 -11 -12 -12 -13 -13 -14 -14 -15 -15 -16 -16 -17 -17 -17 -18 -18 -18 -19 -19 -19 -20 -20 -20 -20 -20 -20 -20 -21 -21
-4 -4 -5 -5 -5 -6 -6 -7 -8 -8 -9 -9 -10 -11 -11 -12 -12 -13 -13 -14 -14 -15 -15 -16 -16 -17 -18 -18 -18 -18 -19 -19 -19 -20 -20 -20 -21 -21 -21 -21 -21 -21 -21 -21
-5 -5 -6 -6 -6 -6 -7 -7 -8 -9 -9 -10 -11 -11 -12 -12 -12 -13 -14 -14 -15 -15 -16 -16 -17 -17 -18 -18 -18 -19 -19 -19 -20 -20 -20 -20 -21 -21 -21 -21 -21 -21 -22 -22
-5 -6 -6 -6 -6 -7 -8 -9 -9 -10 -10 -11 -11 -11 -12 -12 -12 -13 -14 -14 -15 -16 -16 -17 -17 -17 -18 -18 -18 -19 -19 -19 -20 -20 -20 -20 -21 -21 -21 -21 -22 -22 -22 -22
-5 -6 -6 -6 -7 -8 -8 -9 -9 -10 -11 -11 -11 -12 -12 -12 -13 -13 -13 -14 -15 -16 -16 -17 -17 -17 -18 -18 -18 -19 -19 -19 -20 -20 -20 -20 -21 -21 -21 -21 -22 -22 -22 -22
-7 -7 -7 -8 -8 -8 -9 -9 -10 -11 -11 -11 -12 -12 -12 -13 -13 -14 -14 -15 -15 -16 -16 -17 -17 -18 -18 -18 -18 -19 -19 -19 -20 -20 -20 -21 -21 -21 -21 -22 -22 -22 -22 -22

GFSNGP_850_temp_126.txt.gz
Temp
6 5 5 3 3 5 5 5 6 2 1 -1 -2 -2 -3 -4 -5 -5 -5 -6 -6 -7 -7 -5 -5 -5 -4 -3 -2 -1 -1 -1 -1 -0 1 2 3 3 3 4 5 5 6 6
5 5 5 3 2 3 3 3 2 2 0 -1 -3 -4 -4 -5 -6 -6 -6 -6 -7 -8 -8 -7 -7 -7 -6 -5 -3 -3 -1 -2 -2 -1 0 1 1 1 2 3 3 3 4 4
7 4 5 4 2 2 3 3 4 4 1 -1 -2 -4 -5 -5 -6 -6 -7 -7 -8 -9 -9 -9 -8 -8 -7 -7 -6 -3 -2 -1 -1 -1 -1 -0 1 1 1 1 1 2 2 3
8 6 6 2 2 2 2 2 2 1 -0 -1 -3 -5 -6 -7 -7 -7 -8 -8 -9 -8 -8 -9 -9 -8 -8 -8 -7 -4 -2 -2 -2 -2 -1 -1 -0 0 0 0 1 1 1 1
7 7 4 3 3 3 3 1 2 1 -0 -2 -4 -2 -5 -7 -8 -9 -8 -8 -9 -9 -9 -9 -9 -8 -8 -8 -7 -5 -4 -3 -2 -2 -2 -1 -1 -1 -1 -0 0 -0 0 1
7 7 7 4 2 1 3 4 1 1 1 -0 -2 1 -2 -8 -9 -9 -8 -8 -8 -8 -9 -9 -9 -9 -8 -7 -7 -6 -6 -5 -4 -4 -3 -3 -3 -3 -2 -2 -2 -2 -2 -2
7 6 5 2 1 1 4 2 0 -0 0 1 -0 -4 -8 -9 -9 -9 -9 -8 -8 -8 -9 -9 -9 -9 -9 -9 -8 -7 -7 -6 -5 -4 -4 -4 -4 -3 -3 -3 -2 -2 -2 -3
6 6 5 0 1 3 1 0 -0 -1 -2 -3 -5 -6 -8 -9 -9 -9 -9 -8 -8 -8 -9 -9 -9 -9 -9 -9 -8 -8 -7 -8 -7 -6 -5 -5 -5 -4 -4 -4 -4 -4 -3 -3
3 3 0 -1 -0 0 0 -0 -1 -2 -3 -4 -5 -6 -7 -8 -8 -8 -8 -8 -9 -9 -9 -9 -9 -9 -9 -9 -8 -8 -8 -8 -8 -6 -7 -7 -6 -6 -7 -7 -8 -9 -9 -7
2 -0 -0 -1 -2 -1 -1 -2 -2 -3 -4 -4 -5 -6 -7 -7 -8 -8 -8 -9 -9 -9 -9 -10 -10 -9 -9 -10 -9 -9 -9 -9 -9 -9 -9 -9 -10 -9 -8 -7 -9 -10 -9 -9
0 -1 -1 -1 -2 -3 -3 -3 -4 -4 -5 -5 -5 -6 -7 -8 -8 -9 -9 -10 -10 -10 -10 -10 -10 -9 -9 -10 -10 -9 -9 -10 -10 -10 -10 -10 -10 -10 -11 -10 -11 -10 -10 -11
4 0 1 -1 -2 -3 -4 -4 -5 -5 -6 -6 -6 -7 -8 -8 -9 -9 -10 -10 -10 -11 -11 -11 -11 -9 -9 -10 -11 -11 -11 -11 -11 -11 -11 -11 -11 -11 -11 -10 -10 -10 -10 -10
1 -0 -1 -2 -3 -3 -4 -5 -5 -6 -7 -7 -8 -8 -8 -9 -9 -8 -10 -10 -10 -10 -10 -10 -10 -9 -8 -9 -10 -10 -12 -12 -12 -12 -12 -12 -12 -12 -12 -12 -13 -12 -11 -10
-1 -2 -3 -3 -3 -4 -5 -6 -7 -7 -7 -8 -8 -9 -9 -9 -10 -10 -10 -10 -9 -10 -9 -9 -10 -9 -9 -10 -10 -10 -12 -12 -13 -13 -13 -13 -13 -13 -13 -13 -13 -14 -14 -12
-1 -1 -1 -3 -4 -5 -6 -6 -7 -7 -8 -9 -9 -9 -9 -9 -8 -9 -9 -10 -9 -9 -9 -10 -10 -10 -10 -10 -10 -11 -12 -12 -13 -14 -14 -14 -14 -14 -14 -14 -14 -14 -15 -15
-1 -2 -3 -3 -4 -5 -6 -6 -6 -8 -8 -8 -8 -7 -7 -8 -9 -9 -9 -9 -10 -10 -10 -10 -10 -10 -10 -10 -11 -12 -13 -12 -12 -14 -14 -14 -14 -14 -14 -15 -15 -15 -16 -17
-2 -2 -2 -3 -4 -5 -5 -6 -6 -7 -7 -7 -6 -7 -8 -8 -9 -9 -9 -10 -10 -10 -11 -11 -10 -10 -10 -11 -11 -13 -14 -15 -14 -15 -15 -15 -15 -15 -15 -15 -15 -16 -16 -17
-0 -1 -2 -3 -4 -5 -6 -6 -6 -6 -6 -6 -7 -8 -8 -8 -9 -9 -10 -10 -10 -11 -11 -11 -11 -11 -12 -12 -12 -13 -15 -15 -16 -16 -16 -16 -17 -16 -16 -16 -16 -17 -17 -17
-2 -2 -3 -4 -4 -5 -6 -6 -6 -6 -6 -6 -7 -7 -7 -8 -9 -10 -10 -11 -11 -12 -12 -11 -11 -12 -12 -13 -13 -16 -17 -17 -17 -17 -17 -17 -17 -17 -17 -17 -17 -18 -18 -18
-3 -3 -3 -4 -5 -4 -4 -5 -5 -6 -6 -6 -7 -7 -8 -8 -9 -10 -11 -11 -12 -12 -12 -12 -13 -13 -14 -14 -15 -17 -18 -18 -18 -18 -18 -18 -18 -18 -18 -18 -19 -19 -19 -19
-2 -2 -2 -3 -3 -4 -5 -5 -5 -5 -6 -7 -8 -7 -7 -8 -10 -10 -11 -13 -13 -13 -13 -13 -14 -15 -17 -16 -17 -18 -18 -18 -18 -18 -19 -19 -19 -19 -19 -19 -19 -19 -19 -20
-2 -2 -3 -3 -4 -4 -5 -5 -5 -6 -7 -7 -7 -7 -8 -9 -10 -11 -12 -13 -13 -13 -14 -14 -16 -16 -16 -17 -18 -18 -18 -18 -19 -19 -19 -19 -19 -19 -20 -20 -20 -20 -20 -20
-3 -3 -3 -4 -4 -5 -5 -5 -6 -7 -7 -7 -8 -8 -9 -11 -12 -13 -13 -13 -13 -14 -14 -16 -16 -16 -17 -17 -18 -18 -18 -19 -19 -19 -19 -19 -20 -20 -20 -20 -20 -21 -20 -21
-3 -4 -5 -5 -5 -6 -6 -6 -7 -7 -8 -8 -9 -10 -11 -11 -11 -12 -12 -13 -14 -14 -15 -16 -16 -16 -17 -17 -18 -18 -19 -18 -19 -19 -19 -19 -20 -20 -20 -20 -21 -21 -21 -21
-4 -4 -5 -5 -6 -6 -7 -7 -7 -8 -8 -9 -10 -11 -11 -11 -12 -13 -14 -14 -14 -15 -16 -16 -16 -17 -17 -18 -18 -18 -19 -19 -19 -19 -19 -20 -20 -20 -20 -20 -21 -21 -21 -22
-5 -5 -6 -6 -7 -7 -7 -7 -8 -9 -9 -10 -11 -12 -12 -12 -12 -13 -13 -13 -14 -15 -16 -16 -17 -17 -17 -18 -18 -18 -19 -19 -19 -19 -19 -20 -20 -20 -20 -21 -21 -21 -21 -21
-6 -6 -7 -7 -7 -8 -8 -8 -9 -10 -10 -12 -12 -12 -13 -13 -13 -14 -14 -15 -16 -16 -16 -17 -17 -17 -17 -17 -18 -19 -19 -19 -20 -20 -20 -20 -20 -21 -21 -21 -21 -21 -22 -22

GFSNGP_850_temp_132.txt.gz
Temp
10 9 8 5 6 6 7 7 7 4 4 1 0 -1 -2 -3 -3 -3 -3 -4 -6 -7 -6 -5 -5 -5 -6 -5 -5 -4 -5 -4 -4 -3 -4 -3 -0 -0 1 3 2 3 3 3
4 8 8 4 4 3 7 6 5 4 1 1 -0 -1 -2 -3 -3 -4 -4 -5 -6 -7 -7 -6 -6 -6 -6 -5 -5 -4 -3 -4 -3 -5 -4 -4 -2 -1 -1 1 2 3 4 4
7 6 8 6 4 5 7 7 7 6 3 1 1 -1 -3 -3 -4 -4 -4 -5 -6 -6 -7 -6 -6 -6 -6 -6 -6 -4 -4 -4 -4 -5 -3 -2 -2 -2 -1 -1 -1 -1 0 1
9 7 7 3 6 7 6 5 5 3 2 2 -0 -2 -3 -5 -5 -5 -5 -5 -5 -6 -6 -6 -6 -6 -6 -5 -5 -5 -3 -3 -3 -3 -1 -2 -1 -1 -1 -0 -1 -2 -2 -1
9 8 5 4 6 6 6 5 5 3 2 1 -1 -2 -4 -5 -6 -6 -5 -4 -5 -5 -5 -6 -6 -6 -6 -5 -5 -5 -5 -4 -4 -3 -2 -2 -2 -2 -2 -3 -3 -3 -4 -3
9 8 8 7 8 8 8 6 5 4 2 1 0 0 -2 -6 -6 -5 -4 -4 -4 -5 -5 -6 -6 -6 -6 -6 -6 -7 -7 -6 -6 -5 -4 -3 -3 -3 -4 -3 -4 -4 -4 -3
9 9 6 8 7 7 5 5 5 4 3 2 1 -2 -5 -6 -5 -5 -4 -4 -4 -5 -6 -6 -6 -6 -6 -6 -6 -6 -7 -7 -7 -7 -6 -5 -5 -5 -5 -4 -4 -4 -4 -4
9 9 6 6 5 5 4 4 4 4 4 2 -3 -4 -5 -5 -4 -4 -4 -3 -4 -5 -6 -7 -7 -6 -7 -6 -6 -6 -6 -7 -6 -7 -7 -6 -4 -4 -4 -4 -4 -4 -4 -4
5 4 3 3 3 4 4 3 3 2 0 -2 -3 -4 -5 -4 -3 -3 -3 -4 -4 -5 -6 -7 -7 -8 -8 -7 -6 -7 -7 -7 -8 -7 -8 -8 -7 -6 -6 -6 -6 -7 -7 -7
4 2 2 2 3 3 3 3 2 1 -1 -2 -3 -3 -3 -3 -3 -3 -4 -4 -5 -6 -6 -7 -8 -8 -8 -8 -8 -7 -8 -8 -8 -8 -8 -9 -9 -10 -9 -9 -9 -9 -9 -9
2 2 2 2 2 2 2 1 0 -0 -0 -1 -2 -2 -2 -3 -3 -4 -5 -5 -6 -7 -7 -8 -8 -8 -7 -8 -8 -9 -8 -9 -8 -9 -9 -9 -10 -10 -10 -11 -11 -12 -12 -13
5 3 3 2 0 -0 -1 -1 -1 -1 -1 -2 -2 -3 -3 -4 -4 -5 -6 -6 -7 -8 -8 -8 -8 -6 -6 -7 -7 -7 -9 -9 -10 -10 -10 -11 -11 -11 -11 -11 -12 -12 -12 -13
5 3 3 1 -0 -1 -1 -1 -2 -2 -2 -2 -2 -3 -4 -5 -5 -6 -7 -7 -8 -8 -9 -8 -6 -6 -6 -6 -7 -8 -10 -9 -10 -11 -11 -11 -11 -11 -11 -11 -11 -12 -13 -13
4 2 2 1 1 0 -1 -1 -2 -2 -3 -3 -4 -4 -5 -6 -6 -7 -8 -8 -9 -8 -7 -6 -6 -7 -7 -7 -8 -9 -10 -9 -9 -11 -12 -12 -12 -12 -12 -12 -12 -13 -13 -13
3 3 2 1 1 -0 -1 -2 -2 -3 -4 -4 -5 -5 -6 -6 -7 -8 -8 -8 -9 -8 -6 -6 -7 -7 -7 -7 -8 -11 -11 -11 -10 -11 -12 -12 -12 -13 -13 -13 -13 -13 -13 -14
3 3 2 1 0 -1 -2 -2 -3 -4 -5 -5 -5 -6 -6 -7 -7 -8 -8 -7 -9 -7 -7 -7 -7 -7 -7 -8 -8 -11 -11 -13 -12 -12 -13 -13 -13 -13 -14 -14 -14 -14 -14 -15
3 2 2 1 0 -1 -2 -2 -3 -4 -5 -5 -6 -6 -7 -7 -8 -7 -7 -6 -7 -7 -7 -7 -7 -7 -8 -8 -9 -10 -12 -13 -13 -13 -14 -14 -14 -14 -14 -14 -15 -15 -15 -15
3 2 2 1 -0 -1 -2 -3 -3 -4 -5 -6 -6 -6 -7 -7 -8 -7 -6 -6 -7 -7 -7 -8 -8 -8 -8 -9 -10 -10 -13 -14 -14 -14 -14 -15 -15 -15 -15 -15 -15 -16 -16 -16
3 2 1 0 -1 -2 -2 -3 -4 -5 -6 -6 -5 -5 -6 -7 -7 -7 -7 -7 -7 -8 -7 -8 -9 -9 -10 -10 -11 -11 -13 -14 -15 -15 -15 -15 -16 -16 -16 -16 -16 -16 -17 -17
2 1 1 -0 -1 -2 -2 -3 -4 -5 -5 -5 -5 -6 -6 -6 -7 -7 -7 -7 -8 -9 -10 -9 -10 -10 -10 -11 -11 -12 -15 -15 -15 -15 -15 -16 -16 -16 -16 -17 -17 -17 -17 -17
0 -0 -1 -1 -2 -2 -3 -4 -4 -4 -4 -5 -5 -5 -6 -7 -7 -7 -8 -8 -10 -10 -10 -10 -10 -11 -13 -13 -13 -13 -15 -15 -15 -16 -16 -16 -16 -16 -17 -17 -17 -17 -18 -18
-1 -1 -2 -2 -2 -3 -3 -4 -4 -5 -5 -5 -6 -6 -7 -7 -8 -8 -9 -10 -10 -10 -11 -11 -13 -14 -14 -14 -14 -14 -16 -16 -16 -16 -16 -16 -16 -17 -17 -17 -17 -18 -18 -18
-1 -2 -2 -2 -3 -3 -4 -4 -5 -5 -5 -6 -6 -7 -8 -9 -9 -9 -10 -10 -11 -11 -12 -13 -14 -14 -14 -14 -15 -15 -16 -16 -16 -16 -16 -16 -17 -17 -17 -17 -17 -18 -18 -18
-2 -2 -3 -3 -3 -4 -4 -4 -5 -6 -6 -7 -7 -8 -9 -10 -10 -10 -10 -11 -12 -12 -13 -13 -14 -14 -15 -15 -15 -16 -16 -16 -16 -16 -16 -17 -17 -17 -17 -18 -18 -18 -18 -18
-3 -3 -3 -4 -4 -5 -6 -6 -6 -7 -7 -8 -8 -8 -9 -10 -10 -11 -11 -12 -12 -13 -14 -14 -15 -15 -15 -15 -15 -16 -16 -16 -16 -16 -17 -17 -17 -18 -18 -18 -18 -18 -19 -19
-3 -4 -4 -4 -5 -7 -7 -6 -7 -7 -8 -9 -9 -9 -9 -10 -11 -12 -12 -13 -13 -14 -14 -14 -14 -15 -15 -15 -15 -16 -16 -16 -17 -17 -18 -18 -18 -19 -19 -19 -19 -19 -20 -20
-5 -6 -6 -6 -7 -7 -8 -7 -9 -9 -9 -10 -10 -10 -11 -11 -12 -12 -13 -13 -13 -14 -14 -14 -15 -15 -15 -16 -16 -16 -17 -18 -18 -19 -19 -20 -20 -20 -21 -21 -21 -21 -21 -21

GFSNGP_850_temp_135.txt.gz
Temp
8 8 7 5 6 5 6 5 5 1 1 2 1 -0 -2 -3 -3 -4 -5 -5 -5 -5 -5 -6 -5 -4 -4 -3 -3 -4 -3 -3 -4 -4 -5 -3 -2 -2 -1 0 1 2 3 2
2 6 7 1 1 1 3 6 4 3 1 1 -1 -2 -3 -3 -4 -5 -5 -5 -5 -5 -6 -6 -6 -5 -6 -5 -4 -4 -3 -4 -4 -3 -2 -4 -2 -0 -0 -0 -0 -0 -1 -1
5 5 7 6 1 3 5 6 6 2 1 -0 -0 -1 -3 -4 -4 -5 -5 -5 -5 -5 -6 -6 -6 -6 -5 -5 -5 -5 -5 -4 -4 -4 -2 -4 -3 -1 -1 -1 -1 -0 -1 -0
5 5 6 3 5 5 6 4 2 0 -0 0 -1 -3 -4 -5 -5 -5 -5 -5 -5 -5 -6 -6 -6 -6 -5 -5 -6 -5 -5 -5 -4 -3 -3 -3 -3 -2 -2 -3 -3 -3 -2 -2
5 6 4 4 6 5 4 3 2 1 0 -2 -3 -4 -5 -5 -5 -4 -4 -4 -5 -5 -6 -6 -6 -6 -6 -6 -6 -6 -5 -6 -5 -4 -4 -4 -3 -4 -4 -4 -3 -3 -3 -3
5 6 6 6 6 7 6 3 3 2 -0 -1 -2 -2 -3 -5 -4 -4 -4 -4 -5 -5 -6 -6 -6 -6 -6 -6 -6 -7 -7 -7 -6 -5 -5 -4 -4 -4 -4 -4 -4 -4 -3 -3
4 5 5 7 7 7 4 2 3 2 0 -1 -1 -2 -3 -4 -4 -4 -4 -4 -5 -5 -6 -6 -6 -6 -6 -7 -7 -7 -7 -7 -7 -7 -6 -5 -5 -4 -4 -4 -4 -4 -5 -4
4 5 5 6 6 4 3 5 4 2 1 0 -0 -3 -3 -4 -4 -3 -3 -4 -5 -5 -6 -6 -6 -5 -6 -7 -7 -7 -7 -7 -8 -8 -8 -7 -6 -6 -5 -5 -4 -4 -4 -4
3 3 2 3 4 4 4 4 2 3 2 1 -1 -3 -4 -4 -3 -3 -4 -4 -5 -6 -6 -6 -5 -5 -5 -7 -7 -6 -6 -6 -6 -7 -7 -6 -5 -5 -5 -5 -5 -6 -6 -6
2 2 2 3 4 4 3 2 1 1 -0 -1 -2 -3 -3 -3 -3 -3 -4 -5 -5 -6 -6 -5 -5 -5 -4 -5 -5 -6 -5 -6 -7 -8 -8 -9 -10 -10 -9 -9 -8 -9 -9 -11
1 2 2 2 3 3 2 1 0 -1 -2 -2 -3 -3 -3 -3 -3 -4 -5 -5 -6 -6 -6 -5 -5 -4 -4 -4 -5 -5 -6 -6 -6 -7 -8 -9 -10 -11 -11 -12 -12 -12 -13 -13
-1 2 1 1 2 2 1 0 -0 -1 -2 -2 -2 -3 -3 -3 -4 -5 -5 -6 -6 -6 -6 -5 -5 -5 -4 -4 -5 -5 -6 -7 -8 -9 -9 -9 -9 -10 -11 -12 -12 -13 -13 -13
4 4 3 1 2 1 -0 -1 -1 -1 -1 -2 -2 -3 -3 -4 -5 -5 -6 -6 -6 -6 -5 -6 -6 -5 -5 -5 -6 -6 -7 -7 -7 -7 -8 -8 -9 -11 -11 -11 -12 -13 -13 -13
3 2 1 1 -1 -1 -1 -2 -2 -2 -2 -2 -3 -3 -3 -4 -5 -6 -6 -6 -6 -6 -5 -6 -6 -6 -6 -6 -6 -6 -7 -8 -8 -9 -11 -12 -12 -12 -13 -13 -13 -14 -14 -14
2 3 2 1 -0 -1 -1 -2 -2 -2 -2 -3 -3 -4 -4 -5 -6 -6 -6 -6 -5 -6 -6 -7 -6 -6 -6 -7 -8 -8 -9 -9 -10 -10 -12 -12 -12 -13 -13 -14 -14 -15 -15 -15
3 2 1 1 0 -1 -1 -2 -2 -3 -3 -4 -4 -5 -5 -6 -6 -6 -6 -5 -5 -6 -7 -7 -6 -6 -7 -8 -8 -9 -9 -10 -11 -11 -12 -13 -14 -13 -14 -15 -15 -15 -15 -16
2 1 1 0 -0 -1 -2 -2 -3 -3 -4 -4 -5 -5 -6 -6 -6 -6 -6 -6 -6 -7 -7 -7 -7 -7 -8 -8 -9 -9 -10 -11 -10 -12 -14 -14 -14 -15 -15 -15 -16 -16 -16 -16
3 2 2 1 -0 -1 -2 -2 -3 -3 -4 -5 -5 -5 -6 -6 -5 -5 -6 -7 -7 -7 -7 -8 -8 -8 -9 -9 -9 -10 -10 -10 -12 -14 -14 -15 -15 -15 -16 -16 -16 -17 -17 -17
3 2 2 1 0 -1 -2 -2 -3 -3 -4 -5 -5 -5 -6 -6 -5 -6 -7 -7 -7 -7 -8 -8 -9 -9 -9 -9 -10 -11 -11 -12 -14 -15 -15 -15 -16 -16 -16 -16 -17 -17 -17 -17
2 2 1 0 -0 -1 -2 -3 -3 -3 -4 -5 -5 -6 -6 -6 -6 -7 -7 -7 -8 -8 -8 -9 -10 -10 -10 -9 -11 -12 -13 -14 -15 -15 -15 -16 -16 -16 -16 -16 -17 -17 -17 -18
1 1 1 -0 -1 -2 -2 -2 -3 -4 -4 -5 -5 -6 -6 -6 -7 -7 -7 -8 -8 -9 -10 -10 -10 -11 -11 -12 -13 -14 -14 -14 -15 -16 -16 -16 -16 -16 -16 -17 -17 -17 -17 -18
1 0 -0 -1 -1 -2 -2 -3 -3 -4 -5 -5 -6 -6 -6 -7 -7 -7 -8 -9 -9 -10 -11 -11 -11 -12 -13 -14 -14 -14 -14 -15 -15 -16 -16 -16 -16 -16 -17 -17 -17 -18 -18 -18
-0 -1 -1 -1 -2 -2 -3 -3 -4 -4 -5 -5 -6 -6 -6 -7 -8 -8 -9 -10 -10 -11 -11 -12 -13 -13 -14 -14 -15 -15 -15 -15 -16 -16 -16 -16 -16 -17 -17 -17 -18 -18 -18 -18
-1 -1 -2 -2 -3 -3 -3 -4 -4 -5 -5 -6 -6 -7 -7 -8 -8 -9 -10 -11 -11 -11 -12 -13 -13 -14 -14 -15 -15 -15 -15 -15 -16 -16 -16 -16 -17 -18 -18 -18 -18 -19 -19 -19
-2 -2 -2 -3 -3 -4 -4 -5 -5 -5 -6 -6 -7 -8 -8 -9 -9 -11 -11 -11 -12 -12 -13 -13 -14 -14 -14 -15 -15 -15 -15 -16 -16 -16 -17 -17 -18 -18 -19 -19 -20 -20 -20 -20
-2 -3 -3 -4 -4 -5 -5 -6 -6 -6 -7 -7 -8 -8 -9 -10 -10 -11 -11 -12 -12 -13 -14 -14 -14 -14 -15 -15 -15 -16 -16 -16 -17 -17 -18 -19 -19 -20 -20 -21 -21 -21 -22 -22
-4 -5 -4 -5 -6 -7 -7 -7 -7 -7 -8 -8 -9 -9 -10 -11 -11 -12 -12 -13 -13 -14 -14 -14 -14 -15 -15 -16 -16 -17 -17 -18 -18 -19 -19 -20 -20 -21 -21 -22 -23 -23 -23 -24

GFSNGP_850_temp_138.txt.gz
Temp
7 7 6 5 6 6 6 5 4 1 2 1 -0 -1 -2 -3 -4 -4 -4 -4 -5 -5 -5 -5 -4 -4 -3 -3 -4 -4 -4 -4 -6 -5 -3 -1 -2 -1 -1 -0 1 1 2 3
5 5 6 3 2 2 4 5 3 3 1 -0 -1 -2 -2 -3 -4 -5 -5 -5 -5 -5 -5 -5 -5 -5 -4 -4 -4 -4 -4 -3 -5 -4 -3 -1 0 -1 -0 0 1 1 1 3
6 4 6 5 3 1 3 5 4 2 2 -1 -1 -2 -3 -4 -4 -5 -5 -5 -5 -5 -5 -6 -6 -5 -5 -5 -5 -5 -4 -4 -4 -2 -3 -4 -2 -1 -1 -1 -1 -0 0 1
5 5 6 3 4 3 5 4 2 1 -1 -1 -1 -3 -3 -4 -4 -5 -5 -5 -6 -6 -6 -6 -6 -6 -5 -5 -6 -5 -5 -5 -4 -3 -3 -3 -2 -3 -3 -2 -1 -0 0 0
5 6 5 4 5 4 4 4 2 0 -1 -3 -3 -4 -5 -4 -4 -4 -5 -5 -6 -6 -6 -6 -6 -6 -6 -5 -5 -6 -6 -6 -5 -5 -4 -3 -3 -3 -3 -3 -3 -4 -3 -3
4 6 5 5 6 7 6 3 1 0 -2 -3 -4 -3 -3 -4 -4 -4 -5 -5 -5 -6 -6 -6 -6 -6 -6 -6 -6 -6 -7 -7 -6 -6 -5 -5 -5 -5 -5 -5 -4 -4 -4 -4
4 5 5 6 6 6 4 4 2 -0 -2 -3 -3 -1 -1 -3 -4 -4 -5 -5 -5 -5 -5 -6 -6 -6 -7 -7 -7 -7 -7 -7 -6 -6 -6 -6 -6 -6 -6 -6 -5 -5 -5 -5
3 5 4 5 6 4 3 3 2 0 -1 -2 -1 -2 -3 -4 -4 -4 -5 -5 -5 -5 -5 -6 -6 -6 -7 -7 -7 -7 -7 -7 -7 -7 -7 -6 -6 -6 -6 -6 -6 -6 -6 -7
4 3 2 3 4 4 4 3 2 1 0 0 -1 -2 -3 -4 -4 -4 -5 -5 -5 -5 -5 -6 -6 -6 -6 -7 -7 -7 -7 -7 -7 -7 -7 -6 -6 -6 -5 -6 -6 -7 -8 -9
2 1 2 3 4 4 4 4 3 2 2 0 -0 -2 -3 -3 -4 -4 -4 -5 -5 -6 -6 -6 -5 -6 -6 -7 -6 -5 -4 -5 -6 -6 -7 -7 -8 -8 -8 -8 -9 -10 -11 -12
-0 1 2 2 3 3 2 2 2 1 1 0 -1 -3 -3 -4 -4 -4 -5 -5 -6 -5 -6 -6 -5 -5 -5 -5 -5 -4 -5 -6 -7 -7 -8 -9 -11 -12 -12 -13 -13 -13 -13 -13
0 2 1 1 2 2 2 1 1 -0 -1 -2 -2 -2 -3 -3 -4 -4 -4 -5 -5 -5 -6 -6 -6 -5 -5 -6 -5 -5 -5 -6 -7 -8 -10 -10 -11 -11 -12 -12 -13 -13 -14 -14
4 3 3 2 1 1 1 0 -0 -1 -1 -2 -3 -3 -3 -3 -4 -4 -4 -5 -5 -5 -5 -5 -5 -5 -5 -6 -6 -5 -6 -7 -8 -8 -8 -8 -8 -8 -9 -11 -12 -13 -13 -14
4 2 0 1 0 1 0 -0 -1 -1 -2 -2 -3 -3 -3 -3 -4 -4 -5 -5 -5 -5 -5 -5 -5 -5 -6 -7 -7 -6 -7 -7 -7 -8 -9 -10 -11 -11 -12 -13 -13 -12 -13 -14
2 3 3 1 1 1 -0 -1 -1 -2 -2 -3 -4 -4 -3 -4 -4 -5 -5 -5 -6 -6 -5 -5 -6 -6 -6 -7 -7 -7 -7 -8 -9 -11 -11 -12 -13 -13 -13 -14 -15 -15 -15 -15
2 2 1 1 0 -0 -1 -2 -2 -2 -3 -3 -3 -3 -4 -4 -5 -5 -6 -6 -6 -6 -6 -6 -6 -6 -7 -8 -8 -8 -8 -9 -11 -12 -13 -13 -14 -14 -14 -14 -15 -16 -16 -17
1 0 0 -0 -0 -1 -1 -1 -2 -2 -3 -3 -3 -4 -4 -5 -5 -6 -6 -6 -6 -6 -6 -6 -7 -7 -7 -8 -9 -9 -10 -11 -12 -13 -13 -14 -14 -14 -15 -16 -16 -16 -17 -17
3 2 2 1 0 -1 -1 -1 -2 -2 -3 -3 -4 -4 -5 -5 -5 -6 -6 -6 -6 -6 -7 -7 -7 -7 -8 -9 -9 -10 -11 -12 -13 -13 -14 -14 -14 -15 -16 -16 -16 -17 -17 -17
3 2 1 1 1 -0 -1 -1 -2 -2 -3 -4 -4 -4 -5 -6 -6 -6 -7 -7 -7 -7 -7 -8 -8 -8 -9 -10 -10 -11 -12 -13 -13 -14 -14 -15 -15 -16 -16 -16 -17 -17 -17 -17
2 2 2 1 0 -0 -1 -1 -2 -3 -3 -4 -5 -5 -6 -6 -6 -6 -7 -7 -7 -8 -8 -9 -9 -9 -10 -11 -12 -13 -14 -14 -14 -14 -15 -16 -16 -16 -16 -16 -17 -17 -17 -17
2 2 1 1 0 -0 -1 -2 -2 -3 -3 -4 -5 -5 -5 -6 -7 -7 -7 -7 -7 -8 -9 -9 -10 -10 -11 -12 -13 -14 -14 -14 -14 -14 -15 -16 -16 -16 -16 -17 -17 -17 -17 -18
1 1 1 0 -0 -1 -2 -2 -2 -3 -4 -4 -5 -6 -6 -6 -7 -7 -7 -8 -8 -9 -9 -10 -11 -12 -13 -13 -14 -15 -15 -14 -14 -15 -16 -16 -16 -16 -17 -17 -17 -18 -18 -18
1 0 -0 -1 -1 -1 -2 -3 -3 -4 -4 -5 -5 -6 -6 -6 -7 -7 -7 -8 -9 -10 -11 -11 -12 -13 -14 -14 -15 -15 -15 -15 -16 -16 -16 -16 -16 -17 -17 -18 -18 -19 -19 -19
-0 -1 -1 -2 -2 -2 -3 -3 -4 -4 -5 -6 -6 -7 -7 -7 -8 -8 -9 -10 -10 -11 -12 -12 -13 -14 -14 -14 -15 -15 -15 -16 -16 -16 -17 -17 -17 -18 -18 -19 -19 -20 -21 -21
-1 -2 -2 -2 -2 -3 -4 -4 -5 -5 -6 -6 -7 -7 -8 -9 -9 -9 -10 -11 -11 -12 -12 -13 -14 -14 -14 -15 -15 -15 -15 -16 -17 -17 -17 -18 -18 -19 -20 -20 -21 -21 -22 -22
-2 -3 -3 -3 -4 -4 -5 -5 -5 -6 -6 -7 -8 -8 -9 -10 -10 -11 -11 -12 -12 -13 -13 -14 -14 -14 -15 -15 -15 -16 -16 -17 -17 -18 -18 -19 -19 -20 -21 -21 -22 -22 -22 -23
-5 -4 -4 -5 -5 -5 -6 -6 -6 -7 -7 -8 -8 -9 -10 -11 -11 -12 -12 -12 -13 -13 -14 -14 -14 -15 -15 -16 -16 -17 -17 -18 -18 -19 -19 -20 -20 -21 -21 -22 -22 -23 -23 -23

GFSNGP_850_temp_141.txt.gz
Temp
7 6 6 5 5 6 5 5 5 4 4 1 0 -0 -3 -3 -3 -4 -5 -5 -5 -4 -4 -4 -4 -4 -4 -3 -3 -3 -3 -3 -4 -5 -5 -5 -4 -4 -3 -3 -1 -1 -6 -3
4 5 5 5 4 4 5 5 5 4 3 -1 -1 -2 -3 -3 -4 -4 -5 -5 -5 -5 -4 -5 -5 -5 -4 -4 -4 -3 -3 -3 -4 -4 -4 -3 -3 -3 -3 -2 -2 -1 -1 -2
6 5 5 5 4 4 4 4 4 3 3 -2 -2 -2 -3 -3 -4 -4 -5 -5 -5 -5 -5 -6 -5 -5 -5 -4 -4 -4 -4 -4 -3 -3 -3 -3 -3 -3 -2 -2 -1 -2 -1 -2
5 5 5 5 4 4 4 4 3 1 -2 -1 -1 -2 -2 -2 -3 -4 -5 -5 -6 -6 -6 -6 -6 -5 -5 -5 -4 -4 -4 -4 -4 -4 -3 -3 -3 -4 -3 -3 -2 -3 -4 -4
5 5 6 5 5 3 4 4 2 1 -1 -3 -3 -3 -4 -3 -3 -4 -5 -5 -5 -6 -6 -6 -6 -6 -5 -5 -5 -5 -5 -5 -5 -4 -4 -4 -3 -3 -4 -4 -4 -4 -4 -4
5 6 5 5 5 5 6 3 1 0 -2 -4 -3 -3 -5 -4 -4 -4 -5 -5 -5 -6 -6 -6 -6 -6 -5 -6 -6 -5 -6 -6 -5 -5 -5 -5 -5 -5 -5 -5 -5 -5 -5 -5
5 5 5 6 5 6 5 4 1 -0 -2 -3 -2 -1 -0 -2 -4 -4 -5 -5 -5 -6 -6 -6 -6 -6 -5 -6 -7 -7 -6 -6 -5 -5 -6 -6 -6 -6 -6 -5 -5 -5 -5 -6
3 5 5 5 5 4 3 2 2 -0 -1 -2 -1 -0 -2 -3 -4 -5 -5 -5 -5 -5 -6 -6 -6 -6 -5 -5 -7 -7 -6 -6 -6 -7 -7 -7 -6 -7 -7 -7 -6 -7 -7 -7
4 3 2 3 3 4 4 3 1 1 -0 -0 -1 -2 -3 -4 -4 -5 -5 -5 -5 -5 -5 -6 -6 -6 -6 -6 -6 -6 -6 -7 -7 -7 -7 -7 -6 -6 -6 -6 -7 -8 -9 -9
2 1 2 3 3 4 4 4 3 3 2 0 -0 -2 -3 -4 -4 -5 -5 -5 -5 -5 -5 -6 -6 -6 -6 -6 -7 -7 -7 -7 -8 -7 -7 -7 -7 -8 -8 -9 -10 -10 -11 -12
0 0 2 2 2 3 3 4 3 1 1 0 -0 -2 -3 -4 -4 -4 -5 -5 -5 -5 -5 -5 -6 -6 -6 -6 -7 -7 -7 -7 -6 -7 -8 -9 -10 -11 -12 -13 -14 -14 -14 -13
1 3 2 2 2 2 3 3 2 2 -0 -1 -1 -3 -4 -4 -4 -4 -5 -5 -6 -6 -6 -6 -6 -6 -6 -6 -6 -6 -6 -7 -8 -9 -9 -10 -11 -12 -12 -13 -14 -15 -15 -15
4 3 3 3 2 2 2 2 1 0 -0 -2 -3 -5 -5 -6 -4 -4 -5 -5 -5 -5 -6 -6 -6 -6 -6 -6 -6 -6 -6 -7 -8 -9 -9 -10 -10 -10 -10 -12 -12 -13 -14 -14
4 3 0 1 1 1 1 0 -0 -1 -1 -2 -4 -5 -5 -4 -4 -4 -5 -5 -6 -6 -6 -6 -6 -6 -6 -6 -6 -6 -6 -7 -8 -9 -9 -10 -9 -10 -11 -11 -11 -11 -13 -14
2 3 3 1 1 0 0 -0 -1 -2 -2 -3 -3 -3 -4 -5 -5 -4 -5 -6 -6 -6 -6 -6 -6 -6 -6 -6 -6 -7 -8 -8 -9 -9 -10 -10 -10 -11 -13 -14 -14 -15 -14 -15
2 2 2 1 0 -1 0 -1 -1 -2 -2 -3 -3 -3 -4 -4 -4 -5 -5 -5 -5 -5 -6 -6 -6 -7 -7 -7 -7 -8 -8 -9 -9 -10 -11 -11 -12 -13 -14 -15 -15 -16 -16 -16
2 -0 -0 -0 -0 -1 -0 -1 -1 -2 -2 -2 -3 -3 -4 -4 -5 -5 -6 -6 -6 -6 -7 -7 -7 -7 -7 -7 -8 -8 -9 -10 -10 -11 -12 -13 -14 -15 -15 -16 -16 -16 -16 -17
3 2 2 2 0 -0 -1 -1 -1 -2 -2 -2 -3 -3 -4 -4 -4 -5 -6 -6 -6 -7 -7 -7 -7 -7 -7 -8 -8 -9 -10 -11 -12 -12 -13 -14 -15 -15 -16 -16 -16 -16 -16 -17
2 2 2 1 1 0 -1 -1 -2 -2 -3 -3 -3 -4 -4 -5 -5 -6 -6 -7 -7 -7 -7 -8 -8 -8 -8 -9 -10 -11 -11 -12 -13 -14 -14 -15 -15 -16 -16 -16 -16 -16 -17 -17
2 2 1 1 1 0 -0 -1 -2 -2 -3 -3 -4 -4 -5 -5 -6 -6 -6 -7 -7 -7 -8 -8 -9 -9 -10 -10 -12 -12 -13 -13 -13 -14 -15 -15 -15 -16 -16 -16 -16 -17 -17 -17
2 2 2 1 0 -0 -1 -1 -2 -2 -3 -3 -4 -4 -5 -5 -6 -7 -7 -7 -8 -8 -9 -9 -10 -10 -11 -12 -13 -13 -14 -14 -14 -15 -15 -16 -16 -16 -16 -17 -17 -17 -17 -18
2 2 1 1 0 -0 -1 -2 -2 -3 -3 -4 -4 -5 -6 -6 -6 -7 -8 -8 -8 -9 -10 -10 -11 -11 -12 -13 -14 -15 -15 -15 -15 -15 -15 -16 -16 -16 -16 -17 -17 -18 -18 -19
1 1 0 -0 -0 -1 -1 -2 -3 -3 -3 -4 -5 -5 -6 -6 -7 -7 -7 -8 -9 -9 -10 -11 -12 -13 -13 -14 -14 -15 -15 -15 -15 -15 -16 -16 -16 -17 -17 -18 -18 -19 -20 -20
0 -0 -1 -1 -1 -2 -2 -2 -3 -4 -5 -6 -6 -7 -7 -7 -8 -8 -9 -9 -10 -11 -11 -12 -13 -13 -14 -14 -14 -15 -15 -15 -15 -16 -16 -17 -17 -18 -18 -19 -19 -20 -20 -21
-1 -1 -1 -2 -2 -3 -3 -4 -4 -5 -5 -6 -7 -7 -8 -9 -9 -9 -10 -10 -11 -12 -12 -13 -13 -13 -14 -14 -14 -15 -15 -16 -16 -17 -17 -18 -18 -18 -19 -19 -20 -20 -21 -21
-2 -2 -3 -3 -4 -4 -5 -5 -5 -6 -6 -7 -7 -8 -9 -9 -10 -10 -11 -12 -12 -12 -13 -13 -14 -14 -14 -15 -15 -16 -16 -17 -17 -18 -18 -18 -19 -19 -20 -20 -21 -21 -22 -22
-5 -5 -4 -4 -5 -5 -6 -6 -6 -7 -7 -8 -9 -10 -10 -10 -11 -11 -12 -12 -12 -13 -13 -14 -14 -15 -15 -15 -16 -16 -17 -17 -18 -18 -19 -19 -20 -20 -20 -21 -21 -22 -22 -22

GFSNGP_850_temp_144.txt.gz
Temp
6 7 6 4 4 5 5 5 5 5 4 3 1 -1 -2 -3 -3 -4 -4 -4 -4 -4 -4 -4 -4 -3 -3 -3 -3 -3 -3 -2 -3 -3 -3 -3 -3 -3 -3 -4 -3 -4 -2 -1
2 5 5 4 5 4 4 4 4 4 4 1 0 -1 -3 -3 -3 -4 -5 -4 -5 -4 -4 -5 -5 -4 -3 -3 -3 -3 -3 -3 -4 -3 -4 -3 -4 -3 -3 -3 -4 -3 -4 -4
5 5 5 5 4 4 5 5 5 4 5 -2 -2 -2 -3 -3 -3 -4 -4 -4 -5 -4 -5 -5 -5 -4 -4 -4 -4 -4 -4 -4 -4 -4 -4 -4 -4 -4 -4 -4 -4 -4 -4 -5
5 4 5 5 4 4 4 5 4 2 -1 -1 -1 -2 -2 -2 -3 -4 -4 -5 -5 -5 -5 -5 -5 -5 -4 -4 -4 -4 -4 -4 -4 -4 -4 -4 -4 -4 -5 -5 -5 -4 -5 -4
5 5 5 7 4 4 4 5 3 2 -2 -3 -3 -3 -4 -3 -2 -3 -4 -5 -5 -5 -6 -6 -5 -5 -4 -4 -4 -4 -5 -5 -5 -5 -5 -5 -4 -5 -5 -5 -5 -6 -6 -6
4 5 5 7 5 5 5 4 1 0 -2 -3 -2 -2 -4 -3 -3 -4 -4 -4 -5 -5 -6 -6 -5 -5 -5 -4 -4 -4 -5 -5 -6 -6 -6 -6 -6 -6 -6 -5 -6 -6 -6 -6
4 5 5 6 5 6 5 4 1 1 -2 -3 -2 -1 -0 -3 -3 -4 -4 -4 -5 -6 -6 -6 -6 -6 -5 -5 -5 -5 -5 -5 -5 -5 -6 -6 -7 -7 -7 -7 -7 -7 -7 -8
4 5 5 5 4 4 3 2 2 1 -0 -2 -1 -1 -2 -3 -4 -4 -4 -5 -5 -6 -6 -6 -6 -6 -5 -5 -6 -6 -6 -5 -6 -6 -6 -6 -7 -7 -7 -7 -7 -8 -8 -8
5 4 2 3 3 3 4 4 2 2 -0 -1 -1 -2 -3 -4 -4 -4 -4 -5 -5 -6 -6 -6 -6 -6 -6 -6 -6 -6 -6 -6 -6 -7 -7 -7 -7 -6 -6 -6 -7 -8 -9 -9
3 2 1 3 3 4 4 4 4 3 2 -0 -0 -2 -3 -4 -4 -4 -4 -5 -5 -5 -6 -6 -6 -6 -5 -5 -6 -6 -6 -6 -7 -7 -8 -8 -8 -8 -8 -8 -9 -9 -10 -11
1 0 1 2 3 3 3 3 3 2 2 0 -0 -2 -2 -3 -4 -4 -4 -5 -5 -5 -6 -6 -6 -6 -6 -6 -6 -6 -6 -7 -7 -8 -8 -8 -9 -9 -11 -13 -13 -13 -13 -13
1 3 3 2 3 3 3 3 2 2 -0 -1 -0 -1 -3 -4 -4 -4 -4 -5 -5 -5 -5 -5 -6 -6 -6 -6 -6 -6 -6 -7 -7 -7 -8 -8 -9 -10 -11 -12 -12 -13 -13 -14
4 3 3 3 2 2 3 2 2 1 1 -0 -2 -2 -3 -4 -5 -4 -4 -5 -5 -5 -5 -5 -6 -6 -6 -6 -6 -7 -7 -7 -7 -7 -8 -9 -9 -10 -11 -12 -12 -13 -13 -13
4 3 1 1 1 1 2 1 0 -0 -1 -1 -2 -3 -4 -4 -5 -4 -4 -4 -5 -5 -6 -6 -6 -6 -6 -6 -7 -7 -7 -7 -8 -8 -9 -9 -10 -11 -11 -11 -12 -12 -13 -13
2 3 3 2 1 1 1 0 -0 -1 -2 -2 -3 -2 -3 -3 -4 -4 -4 -5 -5 -6 -6 -6 -6 -6 -6 -7 -7 -7 -8 -8 -9 -9 -10 -10 -11 -12 -12 -12 -13 -13 -13 -14
2 2 2 2 1 0 0 -1 -0 -2 -2 -2 -2 -3 -3 -4 -4 -4 -5 -5 -5 -5 -6 -6 -6 -7 -7 -7 -8 -8 -9 -9 -10 -11 -11 -12 -12 -12 -13 -14 -14 -15 -15 -16
2 -0 -0 -0 0 -0 -0 -0 -1 -1 -2 -2 -3 -3 -4 -4 -4 -5 -5 -6 -6 -7 -7 -7 -7 -7 -7 -8 -8 -9 -9 -10 -11 -12 -12 -13 -13 -13 -14 -15 -15 -16 -16 -16
2 2 2 2 1 -0 -1 -1 -1 -2 -2 -2 -3 -3 -4 -4 -4 -4 -5 -6 -6 -7 -7 -7 -7 -7 -8 -8 -9 -9 -10 -11 -12 -12 -13 -13 -14 -14 -15 -15 -16 -16 -16 -16
2 2 1 1 0 -0 -1 -1 -2 -2 -2 -2 -3 -3 -3 -4 -4 -5 -6 -6 -7 -7 -7 -8 -8 -9 -9 -9 -10 -11 -12 -12 -12 -13 -13 -14 -15 -15 -15 -16 -16 -16 -17 -17
2 2 1 1 0 -0 -1 -1 -2 -2 -3 -3 -3 -4 -4 -5 -5 -6 -6 -6 -7 -8 -8 -9 -9 -10 -10 -10 -11 -12 -13 -13 -13 -13 -14 -14 -15 -15 -16 -16 -16 -16 -17 -17
2 2 1 1 0 -0 -1 -1 -2 -2 -3 -3 -4 -4 -4 -5 -6 -6 -7 -7 -8 -8 -9 -9 -10 -10 -11 -12 -12 -13 -14 -14 -14 -14 -14 -15 -15 -15 -16 -16 -16 -17 -17 -18
2 2 1 1 0 -0 -1 -2 -2 -3 -3 -3 -4 -5 -5 -6 -6 -7 -8 -8 -9 -9 -9 -10 -11 -11 -12 -13 -13 -14 -14 -14 -15 -15 -15 -15 -16 -16 -16 -17 -17 -18 -18 -19
1 1 1 0 -0 -1 -1 -2 -2 -3 -3 -4 -4 -5 -5 -6 -6 -7 -7 -8 -9 -9 -10 -11 -11 -12 -13 -13 -14 -14 -14 -15 -15 -15 -15 -16 -16 -17 -17 -18 -18 -18 -19 -19
0 0 -0 -1 -1 -1 -2 -2 -3 -3 -4 -5 -6 -6 -7 -7 -8 -8 -8 -9 -9 -10 -11 -12 -12 -12 -13 -14 -14 -14 -15 -15 -15 -16 -16 -17 -17 -18 -18 -18 -19 -19 -20 -20
-1 -1 -1 -2 -2 -2 -3 -3 -3 -4 -5 -5 -6 -7 -7 -8 -9 -10 -10 -10 -11 -11 -12 -12 -13 -13 -14 -14 -14 -15 -15 -15 -16 -17 -17 -17 -18 -18 -19 -19 -19 -20 -20 -21
-2 -2 -2 -2 -3 -3 -4 -4 -5 -5 -6 -6 -7 -8 -8 -9 -10 -10 -10 -11 -11 -12 -12 -13 -13 -14 -14 -14 -15 -15 -16 -16 -17 -17 -18 -18 -19 -19 -19 -20 -20 -20 -21 -21
-4 -4 -4 -4 -4 -5 -5 -6 -6 -7 -7 -8 -8 -9 -10 -11 -11 -11 -11 -11 -12 -12 -13 -13 -14 -14 -15 -15 -16 -16 -16 -17 -17 -18 -19 -19 -19 -20 -20 -20 -20 -21 -21 -21

GFSNGP_850_temp_150.txt.gz
Temp
10 10 11 10 10 11 11 11 9 9 10 10 11 11 7 3 -0 -2 -3 -3 -3 -4 -4 -3 -3 -3 -3 -4 -3 -3 -3 -2 -3 -3 -3 -5 -5 -7 -7 -8 -6 -5 -5 -4
5 8 10 8 6 5 8 9 10 10 10 11 11 7 6 2 -1 -1 -2 -2 -3 -3 -4 -4 -5 -5 -4 -5 -4 -5 -5 -3 -4 -4 -3 -5 -6 -7 -8 -8 -9 -9 -7 -5
7 9 9 8 7 7 10 11 10 9 11 11 8 7 5 2 -1 -1 -1 -2 -3 -4 -5 -5 -5 -6 -6 -5 -5 -5 -6 -5 -5 -6 -5 -6 -7 -6 -7 -8 -9 -9 -9 -7
6 8 7 8 10 11 10 10 11 11 11 8 7 4 3 2 -0 -0 -1 -2 -4 -5 -5 -6 -6 -6 -5 -5 -5 -5 -5 -5 -5 -7 -7 -7 -8 -9 -8 -7 -8 -8 -8 -10
6 9 10 11 12 9 8 10 11 10 10 6 2 2 1 0 -0 -1 -2 -3 -5 -3 -4 -6 -6 -6 -6 -6 -5 -4 -4 -4 -5 -6 -5 -6 -6 -7 -9 -8 -7 -8 -8 -7
8 6 8 11 10 8 9 9 8 7 8 4 4 7 7 -1 -2 -3 -3 -4 -5 -5 -4 -6 -6 -6 -7 -6 -5 -4 -5 -4 -5 -5 -6 -6 -6 -7 -8 -8 -9 -8 -8 -8
7 7 9 11 9 7 8 9 7 7 6 5 6 3 0 -2 -3 -3 -3 -4 -4 -5 -5 -6 -7 -7 -7 -5 -5 -5 -5 -5 -6 -6 -6 -6 -6 -7 -7 -8 -10 -12 -12 -10
7 7 7 9 7 8 9 6 6 6 5 4 2 -0 -1 -3 -3 -4 -3 -4 -4 -5 -5 -6 -7 -7 -7 -6 -5 -5 -6 -6 -6 -6 -6 -6 -6 -7 -9 -11 -12 -12 -12 -12
9 9 7 7 7 6 6 7 5 5 3 3 1 -0 -2 -4 -3 -3 -3 -4 -4 -5 -6 -6 -6 -7 -7 -6 -6 -6 -6 -7 -7 -7 -7 -8 -9 -9 -11 -11 -12 -12 -12 -12
8 9 8 6 5 5 5 5 4 4 3 1 1 -1 -2 -2 -2 -3 -3 -4 -4 -5 -6 -6 -7 -7 -7 -6 -6 -6 -7 -8 -8 -8 -9 -10 -11 -11 -11 -12 -12 -12 -12 -12
8 9 6 5 5 5 4 4 3 2 2 1 1 -0 -1 -1 -2 -3 -3 -4 -5 -5 -6 -6 -7 -6 -6 -6 -6 -7 -8 -8 -8 -8 -9 -10 -9 -10 -12 -10 -10 -13 -13 -14
8 8 8 6 5 3 3 3 2 1 1 0 0 -0 -1 -2 -2 -3 -4 -5 -5 -5 -6 -7 -7 -7 -6 -6 -6 -7 -7 -8 -8 -9 -9 -10 -11 -12 -10 -10 -11 -11 -12 -13
8 4 3 3 2 2 3 2 1 1 1 -0 -1 -1 -1 -2 -3 -4 -4 -5 -5 -6 -6 -7 -8 -7 -7 -6 -6 -7 -9 -8 -8 -8 -9 -9 -10 -12 -13 -12 -12 -12 -12 -13
4 4 2 2 3 1 2 1 1 -0 -1 -1 -1 -2 -2 -3 -4 -4 -4 -5 -5 -6 -7 -7 -7 -7 -7 -6 -7 -7 -7 -7 -8 -8 -9 -9 -10 -10 -11 -13 -14 -15 -14 -14
2 3 3 3 1 1 1 1 -0 -1 -1 -2 -2 -2 -3 -3 -4 -4 -5 -6 -6 -7 -6 -6 -7 -6 -6 -7 -7 -7 -8 -8 -8 -9 -9 -9 -10 -11 -12 -13 -14 -15 -15 -15
2 2 2 2 1 0 -0 -0 -0 -1 -2 -2 -3 -3 -3 -3 -4 -5 -5 -4 -5 -5 -6 -6 -6 -6 -7 -7 -8 -8 -9 -9 -9 -10 -10 -11 -12 -13 -14 -14 -15 -14 -14 -15
2 2 1 1 0 0 0 -0 -1 -2 -2 -3 -3 -4 -4 -5 -5 -4 -4 -4 -5 -5 -6 -6 -7 -7 -7 -7 -8 -9 -10 -9 -10 -11 -13 -14 -14 -14 -14 -14 -14 -14 -14 -15
2 2 2 1 0 -0 -1 -1 -1 -1 -2 -2 -2 -2 -3 -3 -3 -3 -4 -4 -5 -5 -6 -6 -7 -7 -8 -8 -9 -9 -11 -12 -12 -13 -14 -14 -14 -14 -14 -15 -15 -15 -15 -15
2 2 2 0 -0 -1 -1 -1 -1 -1 -1 -2 -2 -2 -3 -3 -4 -4 -4 -5 -5 -6 -6 -7 -7 -8 -8 -9 -9 -10 -12 -13 -14 -14 -14 -14 -15 -15 -15 -15 -15 -15 -16 -17
1 1 1 1 0 0 -0 -1 -1 -1 -2 -2 -3 -3 -3 -4 -4 -5 -5 -5 -6 -6 -7 -7 -8 -9 -9 -9 -10 -11 -12 -13 -13 -13 -14 -15 -15 -15 -15 -16 -17 -17 -18 -19
1 1 1 0 -0 -1 -1 -1 -1 -1 -2 -2 -3 -3 -3 -4 -4 -5 -5 -6 -6 -7 -8 -8 -9 -9 -10 -10 -11 -12 -12 -13 -14 -15 -15 -15 -16 -16 -17 -17 -18 -19 -19 -20
1 1 0 -0 -0 -1 -1 -2 -2 -2 -2 -3 -3 -3 -4 -4 -5 -5 -6 -7 -7 -8 -8 -9 -9 -10 -11 -11 -12 -13 -14 -15 -15 -15 -16 -15 -16 -16 -17 -17 -18 -19 -19 -19
1 1 0 -0 -0 -1 -1 -2 -2 -2 -3 -3 -3 -4 -4 -5 -5 -6 -6 -7 -8 -8 -9 -9 -10 -11 -12 -12 -13 -14 -15 -15 -15 -15 -15 -15 -16 -16 -17 -18 -18 -18 -19 -19
1 0 0 -0 -1 -1 -1 -2 -2 -3 -3 -3 -4 -4 -5 -5 -6 -6 -7 -8 -8 -9 -10 -10 -11 -12 -12 -13 -14 -14 -14 -15 -15 -15 -16 -16 -17 -17 -18 -18 -19 -19 -19 -20
0 -0 -1 -1 -1 -1 -2 -2 -2 -3 -3 -4 -4 -5 -6 -6 -7 -8 -9 -9 -10 -11 -11 -11 -12 -13 -13 -14 -14 -14 -14 -15 -15 -16 -16 -17 -18 -18 -19 -19 -19 -20 -20 -20
-1 -1 -1 -2 -2 -2 -3 -3 -3 -4 -4 -5 -6 -6 -7 -7 -8 -9 -9 -10 -11 -11 -12 -12 -13 -13 -14 -14 -14 -15 -15 -16 -16 -17 -17 -18 -18 -19 -19 -20 -20 -20 -20 -21
-3 -3 -3 -3 -3 -4 -4 -4 -5 -5 -6 -6 -7 -7 -8 -9 -9 -10 -11 -11 -11 -12 -12 -13 -13 -14 -14 -14 -15 -15 -16 -16 -17 -17 -18 -19 -19 -19 -20 -20 -20 -21 -21 -21

GFSNGP_850_temp_153.txt.gz
Temp
11 11 12 12 13 13 12 13 11 10 12 13 14 13 13 8 5 2 0 -1 -2 -3 -3 -2 -2 -4 -4 -4 -3 -4 -3 -4 -6 -6 -6 -6 -7 -7 -7 -7 -8 -8 -6 -5
6 9 10 9 9 9 11 11 12 12 12 14 14 12 11 9 4 3 1 -0 -1 -1 -1 -2 -3 -3 -4 -4 -4 -4 -5 -5 -6 -6 -6 -7 -7 -7 -7 -7 -8 -8 -9 -8
8 10 11 10 9 10 12 13 13 12 13 14 13 10 9 7 4 3 2 0 0 -1 -2 -2 -3 -3 -4 -4 -4 -5 -5 -5 -6 -6 -6 -7 -7 -7 -8 -8 -9 -9 -9 -10
8 9 7 10 13 14 13 13 14 14 14 13 11 8 8 7 4 2 2 1 -1 -2 -3 -3 -3 -4 -4 -4 -5 -5 -5 -6 -6 -6 -7 -7 -7 -7 -8 -9 -9 -10 -10 -11
7 8 10 12 14 13 12 12 14 13 13 10 6 6 5 4 3 2 1 0 -2 -3 -4 -3 -3 -4 -4 -5 -6 -6 -5 -6 -6 -6 -6 -7 -7 -8 -9 -9 -10 -9 -8 -7
8 7 8 12 12 12 12 10 11 11 11 8 6 8 8 3 2 1 0 -1 -3 -4 -4 -3 -4 -4 -4 -5 -6 -4 -4 -4 -4 -4 -4 -4 -5 -7 -9 -10 -10 -11 -10 -8
7 8 10 14 12 11 9 9 9 10 10 8 8 5 3 1 0 -1 -0 -1 -2 -3 -3 -4 -4 -4 -5 -6 -4 -4 -4 -4 -4 -5 -5 -5 -6 -8 -9 -9 -11 -11 -11 -11
8 8 7 13 11 9 10 9 9 9 9 8 4 3 1 -1 -2 -1 -0 -1 -2 -2 -2 -3 -4 -4 -5 -6 -6 -6 -5 -5 -5 -5 -5 -5 -6 -9 -9 -10 -10 -10 -10 -11
10 10 11 10 10 9 9 10 8 8 7 7 3 2 0 -2 -1 -0 -0 -1 -1 -1 -3 -3 -4 -4 -4 -5 -6 -7 -7 -7 -7 -6 -6 -8 -9 -9 -9 -10 -10 -10 -10 -10
10 11 12 10 8 8 8 8 8 7 6 5 4 3 0 -0 0 0 0 -0 -1 -2 -3 -4 -4 -4 -4 -6 -6 -7 -7 -7 -8 -8 -9 -9 -9 -10 -10 -10 -10 -11 -11 -11
10 11 10 9 9 8 7 6 6 6 5 5 4 2 1 1 1 1 0 -1 -1 -2 -3 -3 -4 -5 -5 -6 -6 -6 -7 -7 -8 -8 -8 -9 -8 -9 -11 -9 -9 -11 -12 -13
8 9 10 9 8 7 6 6 5 5 4 4 3 3 2 2 1 1 -0 -1 -2 -2 -3 -4 -4 -5 -6 -6 -7 -6 -7 -7 -8 -8 -8 -9 -9 -10 -9 -10 -10 -11 -11 -12
9 7 6 6 6 6 6 5 4 4 4 3 3 2 2 1 0 -0 -1 -2 -2 -3 -3 -4 -5 -5 -6 -7 -7 -7 -7 -7 -8 -9 -9 -9 -10 -10 -11 -11 -12 -12 -13 -13
6 5 5 5 6 4 4 4 3 3 3 2 2 2 1 0 -1 -1 -2 -2 -3 -3 -4 -5 -5 -6 -7 -8 -8 -8 -8 -8 -9 -9 -9 -9 -10 -11 -11 -12 -12 -13 -13 -14
5 5 6 6 5 4 4 3 3 2 2 1 1 1 -0 -1 -2 -2 -2 -3 -4 -4 -5 -5 -6 -7 -5 -6 -7 -7 -7 -8 -8 -9 -9 -10 -10 -12 -13 -13 -13 -13 -12 -13
5 5 5 5 5 4 3 3 2 1 0 0 -0 -0 -1 -1 -2 -2 -3 -4 -4 -4 -5 -6 -6 -5 -6 -7 -7 -8 -9 -9 -9 -11 -12 -12 -12 -12 -12 -13 -12 -12 -12 -13
5 5 5 4 4 3 2 2 2 1 0 -0 -1 -1 -1 -2 -2 -3 -4 -5 -5 -5 -5 -5 -6 -6 -6 -7 -7 -10 -10 -11 -10 -12 -12 -12 -12 -12 -12 -12 -12 -12 -13 -13
5 5 4 4 3 2 1 1 1 -0 -1 -1 -2 -2 -3 -3 -3 -4 -5 -5 -4 -5 -5 -5 -6 -6 -7 -7 -8 -10 -10 -11 -12 -12 -12 -12 -12 -12 -13 -13 -13 -13 -13 -14
4 4 3 3 2 1 1 0 -0 -1 -2 -2 -2 -2 -3 -3 -4 -4 -4 -4 -5 -5 -5 -6 -6 -7 -7 -8 -9 -11 -11 -11 -12 -12 -12 -13 -13 -13 -13 -13 -14 -14 -15 -15
3 2 2 2 1 1 0 -1 -1 -1 -1 -2 -2 -3 -3 -4 -4 -4 -4 -5 -6 -6 -6 -6 -7 -8 -8 -8 -9 -12 -12 -12 -12 -13 -13 -13 -13 -13 -14 -14 -15 -16 -16 -17
1 1 1 -0 -0 -0 -1 -1 -1 -1 -2 -2 -2 -3 -3 -4 -4 -4 -5 -5 -6 -6 -7 -7 -8 -8 -9 -9 -10 -13 -13 -13 -13 -13 -14 -14 -14 -14 -15 -16 -16 -17 -18 -18
1 1 1 0 -0 -0 -1 -1 -1 -2 -2 -2 -3 -3 -3 -4 -4 -5 -5 -7 -6 -7 -7 -8 -9 -9 -11 -10 -12 -13 -13 -14 -14 -14 -14 -15 -15 -15 -16 -17 -18 -19 -19 -20
1 1 0 -0 -0 -1 -1 -1 -2 -2 -2 -3 -3 -3 -4 -4 -5 -5 -6 -7 -7 -7 -8 -9 -9 -10 -11 -12 -13 -13 -13 -14 -14 -15 -15 -15 -15 -16 -17 -19 -18 -19 -20 -21
1 0 0 -0 -1 -1 -1 -2 -2 -2 -3 -3 -3 -4 -4 -5 -6 -7 -7 -7 -8 -9 -10 -9 -10 -11 -12 -13 -13 -14 -14 -15 -15 -15 -15 -16 -16 -16 -17 -18 -18 -19 -19 -19
0 0 -0 -1 -1 -2 -2 -2 -2 -3 -3 -4 -4 -5 -5 -7 -7 -8 -7 -8 -9 -11 -10 -11 -11 -12 -13 -14 -14 -14 -14 -14 -15 -15 -16 -16 -17 -17 -18 -18 -19 -19 -20 -20
-1 -2 -2 -2 -3 -4 -3 -3 -5 -5 -6 -5 -6 -6 -6 -7 -8 -8 -9 -10 -11 -12 -11 -12 -13 -13 -13 -13 -14 -14 -14 -15 -15 -16 -17 -17 -18 -18 -18 -19 -19 -20 -20 -20
-2 -2 -3 -4 -4 -4 -5 -5 -6 -6 -6 -7 -7 -7 -8 -9 -9 -10 -11 -12 -12 -12 -12 -13 -13 -13 -13 -14 -14 -15 -15 -15 -16 -17 -17 -18 -18 -19 -19 -19 -20 -20 -20 -21